FW3681 Weather Reports


Display with metric or nautical units.
time (UTC)temp
F
wind
direction
speed
MPH
gust
MPH
rain 1hr
in
rain 24hr
in
rain mn
in
humidity
%
barometer
mb
20260901172258 93 347 3.0 7.0 0.00 0.00 0.00 55 1018.2
20260901172057 92 15 2.0 7.0 0.00 0.00 0.00 55 1018.2
20260901171959 92 20 1.0 8.0 0.00 0.00 0.00 54 1018.3
20260901171858 92 13 4.0 8.0 0.00 0.00 0.00 54 1018.3
20260901171758 93 350 5.0 8.0 0.00 0.00 0.00 53 1018.3
20260901171658 93 6 5.0 8.0 0.00 0.00 0.00 53 1018.2
20260901171459 93 351 6.0 8.0 0.00 0.00 0.00 53 1018.3
20260901171358 93 343 6.0 8.0 0.00 0.00 0.00 53 1018.3
20260901171257 93 360 6.0 8.0 0.00 0.00 0.00 52 1018.3
20260901171158 93 13 7.0 8.0 0.00 0.00 0.00 51 1018.3
20260901171057 94 1 7.0 8.0 0.00 0.00 0.00 51 1018.4
20260901171001 93 354 5.0 8.0 0.00 0.00 0.00 51 1018.4
20260901170857 93 355 2.0 10.0 0.00 0.00 0.00 51 1018.4
20260901170757 93 343 6.0 10.0 0.00 0.00 0.00 51 1018.4
20260901170658 94 330 3.0 10.0 0.00 0.00 0.00 51 1018.4
20260901170557 93 350 4.0 10.0 0.00 0.00 0.00 50 1018.4
20260901170458 94 334 3.0 10.0 0.00 0.00 0.00 50 1018.4
20260901170357 94 25 3.0 10.0 0.00 0.00 0.00 50 1018.4
20260901170257 94 358 5.0 10.0 0.00 0.00 0.00 50 1018.5
20260901170157 94 13 8.0 10.0 0.00 0.00 0.00 51 1018.5
20260901170057 94 351 6.0 10.0 0.00 0.00 0.00 50 1018.4
20260901170003 94 91 4.0 10.0 0.00 0.00 0.00 51 1018.4
20260901165859 94 341 3.0 10.0 0.00 0.00 0.00 51 1018.5
20260901165758 93 339 4.0 10.0 0.00 0.00 0.00 52 1018.5
20260901165659 93 82 2.0 10.0 0.00 0.00 0.00 52 1018.5
20260901165558 93 46 3.0 10.0 0.00 0.00 0.00 52 1018.5
20260901165258 93 83 3.0 10.0 0.00 0.00 0.00 51 1018.5
20260901165158 93 106 5.0 10.0 0.00 0.00 0.00 52 1018.4
20260901165059 93 69 3.0 10.0 0.00 0.00 0.00 53 1018.4
20260901165002 93 105 0.0 10.0 0.00 0.00 0.00 53 1018.5
20260901164758 92 8 5.0 10.0 0.00 0.00 0.00 55 1018.5
20260901164658 93 350 7.0 10.0 0.00 0.00 0.00 54 1018.4
20260901164559 93 329 4.0 10.0 0.00 0.00 0.00 53 1018.5
20260901164459 94 340 10.0 10.0 0.00 0.00 0.00 54 1018.5
20260901164358 93 1 4.0 8.0 0.00 0.00 0.00 55 1018.5
20260901164258 93 340 3.0 8.0 0.00 0.00 0.00 55 1018.5
20260901164159 93 8 8.0 8.0 0.00 0.00 0.00 56 1018.5
20260901164059 92 1 6.0 8.0 0.00 0.00 0.00 55 1018.5
20260901164004 92 324 4.0 8.0 0.00 0.00 0.00 56 1018.4
20260901163658 91 3 2.0 7.0 0.00 0.00 0.00 57 1018.5
20260901163557 91 27 2.0 7.0 0.00 0.00 0.00 56 1018.7
20260901163501 91 310 4.0 7.0 0.00 0.00 0.00 56 1018.7
20260901163358 91 80 2.0 7.0 0.00 0.00 0.00 57 1018.7
20260901163257 91 75 2.0 7.0 0.00 0.00 0.00 58 1018.6
20260901163058 90 1 4.0 7.0 0.00 0.00 0.00 58 1018.6
20260901163003 91 345 3.0 7.0 0.00 0.00 0.00 58 1018.7
20260901162758 91 8 3.0 8.0 0.00 0.00 0.00 57 1018.7
20260901162658 92 130 4.0 8.0 0.00 0.00 0.00 57 1018.7
20260901162459 92 8 4.0 8.0 0.00 0.00 0.00 58 1018.7
20260901162358 92 6 2.0 8.0 0.00 0.00 0.00 57 1018.7
20260901162259 92 33 3.0 8.0 0.00 0.00 0.00 57 1018.7
20260901162158 91 359 4.0 8.0 0.00 0.00 0.00 57 1018.7
20260901162058 92 333 5.0 8.0 0.00 0.00 0.00 57 1018.8
20260901162000 92 357 5.0 7.0 0.00 0.00 0.00 57 1018.8
20260901161859 92 352 4.0 7.0 0.00 0.00 0.00 57 1018.8
20260901161758 92 13 6.0 7.0 0.00 0.00 0.00 57 1018.8
20260901161658 92 82 3.0 8.0 0.00 0.00 0.00 57 1018.7
20260901161558 92 83 4.0 8.0 0.00 0.00 0.00 57 1018.7
20260901161500 92 357 3.0 8.0 0.00 0.00 0.00 57 1018.7
20260901161357 92 323 1.0 8.0 0.00 0.00 0.00 57 1018.7
20260901161259 93 70 6.0 8.0 0.00 0.00 0.00 56 1018.7
20260901161058 92 336 4.0 8.0 0.00 0.00 0.00 58 1018.7
20260901161002 92 4 4.0 8.0 0.00 0.00 0.00 58 1018.6
20260901160659 91 352 3.0 11.0 0.00 0.00 0.00 59 1018.7
20260901160559 91 1 4.0 11.0 0.00 0.00 0.00 61 1018.8
20260901160459 90 27 3.0 11.0 0.00 0.00 0.00 61 1018.8
20260901160358 90 30 3.0 11.0 0.00 0.00 0.00 60 1018.7
20260901160257 90 65 2.0 11.0 0.00 0.00 0.00 61 1018.9
20260901160159 89 18 6.0 11.0 0.00 0.00 0.00 62 1018.9
20260901160058 89 350 5.0 11.0 0.00 0.00 0.00 60 1018.8
20260901160004 90 351 8.0 10.0 0.00 0.00 0.00 60 1018.8
20260901155757 91 342 6.0 9.0 0.00 0.00 0.00 59 1018.8
20260901155658 91 357 6.0 9.0 0.00 0.00 0.00 59 1018.8
20260901155557 91 330 4.0 9.0 0.00 0.00 0.00 59 1018.9
20260901155458 91 352 7.0 9.0 0.00 0.00 0.00 60 1018.8
20260901155356 91 22 6.0 9.0 0.00 0.00 0.00 60 1018.8
20260901155257 91 349 7.0 8.0 0.00 0.00 0.00 60 1018.8
20260901155157 91 302 3.0 8.0 0.00 0.00 0.00 59 1018.8
20260901155057 91 346 8.0 8.0 0.00 0.00 0.00 60 1018.9
20260901154959 91 360 2.0 8.0 0.00 0.00 0.00 60 1018.8
20260901154857 91 11 3.0 9.0 0.00 0.00 0.00 60 1018.8
20260901154756 90 339 5.0 9.0 0.00 0.00 0.00 61 1018.8
20260901154658 90 32 2.0 9.0 0.00 0.00 0.00 61 1018.9
20260901154557 90 12 5.0 9.0 0.00 0.00 0.00 62 1018.9
20260901154357 90 351 7.0 9.0 0.00 0.00 0.00 62 1018.9
20260901154257 89 350 5.0 9.0 0.00 0.00 0.00 62 1018.8
20260901154057 90 358 6.0 9.0 0.00 0.00 0.00 61 1018.8
20260901154003 90 336 8.0 8.0 0.00 0.00 0.00 62 1018.8
20260901153857 90 356 6.0 8.0 0.00 0.00 0.00 62 1018.8
20260901153757 90 335 6.0 10.0 0.00 0.00 0.00 62 1018.8
20260901153657 90 360 6.0 10.0 0.00 0.00 0.00 62 1018.8
20260901153458 90 340 4.0 10.0 0.00 0.00 0.00 63 1018.8
20260901153357 89 348 4.0 10.0 0.00 0.00 0.00 63 1018.9
20260901153158 89 335 4.0 10.0 0.00 0.00 0.00 62 1018.8
20260901153058 90 357 3.0 10.0 0.00 0.00 0.00 62 1018.8
20260901152857 90 335 4.0 8.0 0.00 0.00 0.00 62 1018.8
20260901152657 90 345 5.0 8.0 0.00 0.00 0.00 62 1018.8
20260901152557 90 334 4.0 8.0 0.00 0.00 0.00 62 1018.8
20260901152458 90 337 7.0 7.0 0.00 0.00 0.00 62 1018.7
20260901152358 90 342 4.0 7.0 0.00 0.00 0.00 62 1018.8
20260901152257 90 13 3.0 7.0 0.00 0.00 0.00 62 1018.7
20260901152057 90 80 2.0 7.0 0.00 0.00 0.00 63 1018.8
20260901152000 89 352 5.0 7.0 0.00 0.00 0.00 63 1018.7
20260901151757 90 341 5.0 7.0 0.00 0.00 0.00 63 1018.8
20260901151657 90 332 5.0 7.0 0.00 0.00 0.00 64 1018.8
20260901151558 89 349 3.0 7.0 0.00 0.00 0.00 65 1018.8
20260901151459 89 347 2.0 7.0 0.00 0.00 0.00 65 1018.7
20260901151358 89 345 5.0 7.0 0.00 0.00 0.00 65 1018.7
20260901151257 88 339 4.0 7.0 0.00 0.00 0.00 65 1018.7
20260901151158 88 360 5.0 7.0 0.00 0.00 0.00 65 1018.7
20260901151057 88 341 4.0 7.0 0.00 0.00 0.00 65 1018.7
20260901151000 88 351 6.0 7.0 0.00 0.00 0.00 65 1018.7
20260901150858 89 315 4.0 7.0 0.00 0.00 0.00 65 1018.7
20260901150757 89 328 5.0 7.0 0.00 0.00 0.00 64 1018.7
20260901150557 89 336 5.0 7.0 0.00 0.00 0.00 65 1018.8
20260901150458 89 331 4.0 7.0 0.00 0.00 0.00 64 1018.7
20260901150357 89 77 4.0 10.0 0.00 0.00 0.00 65 1018.8
20260901150258 89 351 3.0 10.0 0.00 0.00 0.00 64 1018.7
20260901150157 89 359 4.0 10.0 0.00 0.00 0.00 64 1018.8
20260901150057 89 19 5.0 10.0 0.00 0.00 0.00 66 1018.8
20260901150000 88 4 6.0 10.0 0.00 0.00 0.00 65 1018.8
20260901145858 88 347 6.0 10.0 0.00 0.00 0.00 66 1018.7
20260901145757 88 330 2.0 10.0 0.00 0.00 0.00 67 1018.7
20260901145658 87 351 3.0 10.0 0.00 0.00 0.00 67 1018.7
20260901145556 87 1 6.0 10.0 0.00 0.00 0.00 67 1018.7
20260901145357 88 331 7.0 8.0 0.00 0.00 0.00 66 1018.7
20260901145258 88 349 6.0 7.0 0.00 0.00 0.00 66 1018.7
20260901144959 88 327 5.0 7.0 0.00 0.00 0.00 67 1018.7
20260901144858 88 324 4.0 7.0 0.00 0.00 0.00 66 1018.7
20260901144756 88 3 5.0 7.0 0.00 0.00 0.00 66 1018.7
20260901144656 88 347 5.0 7.0 0.00 0.00 0.00 66 1018.7
20260901144557 89 345 4.0 7.0 0.00 0.00 0.00 66 1018.7
20260901144458 89 338 3.0 7.0 0.00 0.00 0.00 67 1018.7
20260901144357 88 317 3.0 7.0 0.00 0.00 0.00 67 1018.7
20260901144257 88 349 4.0 7.0 0.00 0.00 0.00 67 1018.7
20260901144158 88 342 3.0 7.0 0.00 0.00 0.00 68 1018.7
20260901144058 87 351 4.0 7.0 0.00 0.00 0.00 69 1018.8
20260901143959 87 354 5.0 7.0 0.00 0.00 0.00 69 1018.7
20260901143757 86 349 5.0 8.0 0.00 0.00 0.00 70 1018.7
20260901143558 86 349 5.0 8.0 0.00 0.00 0.00 70 1018.7
20260901143458 86 331 3.0 8.0 0.00 0.00 0.00 70 1018.7
20260901143357 86 339 6.0 8.0 0.00 0.00 0.00 71 1018.7
20260901143257 85 346 4.0 8.0 0.00 0.00 0.00 71 1018.7
20260901143157 85 338 5.0 8.0 0.00 0.00 0.00 71 1018.7
20260901143000 85 346 8.0 8.0 0.00 0.00 0.00 71 1018.8
20260901142757 85 326 6.0 8.0 0.00 0.00 0.00 71 1018.7
20260901142657 85 335 6.0 7.0 0.00 0.00 0.00 72 1018.8
20260901142557 85 343 4.0 7.0 0.00 0.00 0.00 72 1018.8
20260901142459 85 353 3.0 7.0 0.00 0.00 0.00 73 1018.7
20260901142358 85 347 4.0 7.0 0.00 0.00 0.00 73 1018.8
20260901142158 84 338 5.0 7.0 0.00 0.00 0.00 72 1018.8
20260901142057 84 338 6.0 7.0 0.00 0.00 0.00 73 1018.9
20260901141959 84 345 4.0 7.0 0.00 0.00 0.00 73 1018.9
20260901141857 84 346 4.0 8.0 0.00 0.00 0.00 73 1018.9
20260901141658 84 327 3.0 8.0 0.00 0.00 0.00 73 1018.9
20260901141558 84 340 5.0 8.0 0.00 0.00 0.00 73 1018.9
20260901141459 84 4 4.0 8.0 0.00 0.00 0.00 73 1018.9
20260901141357 84 359 5.0 8.0 0.00 0.00 0.00 74 1018.9
20260901141258 84 342 6.0 8.0 0.00 0.00 0.00 74 1018.9
20260901141058 84 316 3.0 8.0 0.00 0.00 0.00 74 1018.9
20260901141000 84 330 5.0 8.0 0.00 0.00 0.00 74 1018.9
20260901140857 84 328 4.0 8.0 0.00 0.00 0.00 74 1018.9
20260901140657 84 346 4.0 7.0 0.00 0.00 0.00 75 1018.9
20260901140558 84 356 3.0 7.0 0.00 0.00 0.00 75 1018.8
20260901140457 83 347 3.0 7.0 0.00 0.00 0.00 75 1018.8
20260901140357 83 347 5.0 7.0 0.00 0.00 0.00 75 1018.8
20260901140257 83 354 3.0 6.0 0.00 0.00 0.00 75 1018.8
20260901140158 83 352 4.0 6.0 0.00 0.00 0.00 75 1018.8
20260901140058 83 347 5.0 6.0 0.00 0.00 0.00 75 1018.8
20260901135959 83 336 5.0 6.0 0.00 0.00 0.00 75 1018.8
20260901135857 83 360 3.0 6.0 0.00 0.00 0.00 75 1018.8
20260901135757 83 346 5.0 6.0 0.00 0.00 0.00 76 1018.8
20260901135458 83 333 3.0 6.0 0.00 0.00 0.00 76 1018.7
20260901135358 83 1 4.0 6.0 0.00 0.00 0.00 76 1018.7
20260901135257 83 346 1.0 6.0 0.00 0.00 0.00 76 1018.7
20260901135156 83 54 2.0 6.0 0.00 0.00 0.00 77 1018.7
20260901135057 83 338 5.0 7.0 0.00 0.00 0.00 77 1018.7
20260901135004 82 15 1.0 7.0 0.00 0.00 0.00 77 1018.7
20260901134857 82 330 3.0 7.0 0.00 0.00 0.00 77 1018.7
20260901134757 82 356 4.0 7.0 0.00 0.00 0.00 77 1018.7
20260901134657 82 340 3.0 7.0 0.00 0.00 0.00 77 1018.7
20260901134557 82 346 3.0 7.0 0.00 0.00 0.00 78 1018.7
20260901134358 82 356 5.0 7.0 0.00 0.00 0.00 78 1018.7
20260901134256 82 345 4.0 7.0 0.00 0.00 0.00 78 1018.7
20260901134159 82 330 4.0 5.0 0.00 0.00 0.00 78 1018.6
20260901134057 82 352 4.0 5.0 0.00 0.00 0.00 77 1018.7
20260901134000 82 345 3.0 5.0 0.00 0.00 0.00 77 1018.7
20260901133857 82 341 3.0 5.0 0.00 0.00 0.00 77 1018.7
20260901133757 82 352 3.0 5.0 0.00 0.00 0.00 77 1018.7
20260901133557 82 4 4.0 4.0 0.00 0.00 0.00 78 1018.7
20260901133458 82 103 1.0 4.0 0.00 0.00 0.00 78 1018.7
20260901133357 82 359 3.0 4.0 0.00 0.00 0.00 78 1018.6
20260901133256 82 340 3.0 4.0 0.00 0.00 0.00 78 1018.6
20260901133157 82 15 4.0 4.0 0.00 0.00 0.00 78 1018.7
20260901133057 82 356 3.0 4.0 0.00 0.00 0.00 79 1018.7
20260901133000 81 289 0.0 4.0 0.00 0.00 0.00 79 1018.7
20260901132856 81 345 3.0 4.0 0.00 0.00 0.00 78 1018.7
20260901132656 82 335 4.0 4.0 0.00 0.00 0.00 78 1018.8
20260901132557 82 336 2.0 4.0 0.00 0.00 0.00 78 1018.8
20260901132458 82 340 3.0 4.0 0.00 0.00 0.00 79 1018.8
20260901132357 81 338 2.0 4.0 0.00 0.00 0.00 79 1018.7
20260901131959 81 302 2.0 4.0 0.00 0.00 0.00 80 1018.8
20260901131857 81 340 4.0 4.0 0.00 0.00 0.00 79 1018.9
20260901131757 81 330 2.0 4.0 0.00 0.00 0.00 79 1018.9
20260901131656 81 340 3.0 4.0 0.00 0.00 0.00 80 1018.8
20260901131458 81 342 2.0 4.0 0.00 0.00 0.00 80 1018.8
20260901131357 81 328 1.0 4.0 0.00 0.00 0.00 80 1018.8
20260901131257 81 328 3.0 4.0 0.00 0.00 0.00 80 1018.8
20260901131157 80 343 2.0 4.0 0.00 0.00 0.00 80 1018.8
20260901130959 80 335 0.0 4.0 0.00 0.00 0.00 80 1018.8
20260901130757 80 349 3.0 4.0 0.00 0.00 0.00 81 1018.8
20260901130657 80 6 3.0 4.0 0.00 0.00 0.00 81 1018.8
20260901130557 80 331 1.0 4.0 0.00 0.00 0.00 81 1018.7
20260901130258 80 262 0.0 4.0 0.00 0.00 0.00 82 1018.7
20260901130002 79 345 0.0 4.0 0.00 0.00 0.00 81 1018.7
20260901125858 80 326 2.0 4.0 0.00 0.00 0.00 81 1018.6
20260901125657 80 328 3.0 3.0 0.00 0.00 0.00 81 1018.7
20260901125556 80 321 1.0 3.0 0.00 0.00 0.00 82 1018.7
20260901125458 79 354 1.0 3.0 0.00 0.00 0.00 82 1018.7
20260901125357 79 281 0.0 3.0 0.00 0.00 0.00 82 1018.6
20260901125157 79 333 0.0 3.0 0.00 0.00 0.00 82 1018.7
20260901125057 79 4 1.0 3.0 0.00 0.00 0.00 82 1018.7
20260901125000 79 299 0.0 3.0 0.00 0.00 0.00 82 1018.7
20260901124857 79 6 0.0 4.0 0.00 0.00 0.00 82 1018.6
20260901124757 79 111 0.0 4.0 0.00 0.00 0.00 82 1018.7
20260901124657 79 293 0.0 4.0 0.00 0.00 0.00 82 1018.6
20260901124556 79 8 0.0 4.0 0.00 0.00 0.00 82 1018.6
20260901124458 79 329 2.0 4.0 0.00 0.00 0.00 83 1018.7
20260901124358 79 313 0.0 4.0 0.00 0.00 0.00 83 1018.6
20260901124258 79 165 0.0 4.0 0.00 0.00 0.00 83 1018.7
20260901124157 79 326 0.0 4.0 0.00 0.00 0.00 83 1018.7
20260901124057 79 312 0.0 4.0 0.00 0.00 0.00 83 1018.7
20260901124005 79 322 3.0 4.0 0.00 0.00 0.00 83 1018.7
20260901123858 79 255 0.0 4.0 0.00 0.00 0.00 84 1018.6
20260901123757 78 310 0.0 4.0 0.00 0.00 0.00 84 1018.7
20260901123557 78 321 0.0 4.0 0.00 0.00 0.00 84 1018.6
20260901123356 78 300 1.0 4.0 0.00 0.00 0.00 84 1018.7
20260901123157 78 230 0.0 3.0 0.00 0.00 0.00 85 1018.6
20260901123058 78 285 0.0 3.0 0.00 0.00 0.00 85 1018.6
20260901123000 78 284 2.0 3.0 0.00 0.00 0.00 85 1018.5
20260901122757 78 300 1.0 3.0 0.00 0.00 0.00 85 1018.5
20260901122657 78 11 1.0 3.0 0.00 0.00 0.00 85 1018.5
20260901122556 77 305 3.0 3.0 0.00 0.00 0.00 86 1018.5
20260901122358 77 312 0.0 3.0 0.00 0.00 0.00 86 1018.5
20260901122257 77 285 2.0 3.0 0.00 0.00 0.00 86 1018.4
20260901122158 77 331 0.0 3.0 0.00 0.00 0.00 86 1018.4
20260901122057 77 271 2.0 3.0 0.00 0.00 0.00 86 1018.5
20260901122000 77 303 0.0 3.0 0.00 0.00 0.00 86 1018.4
20260901121857 77 237 0.0 3.0 0.00 0.00 0.00 87 1018.4
20260901121756 77 278 2.0 3.0 0.00 0.00 0.00 87 1018.4
20260901121657 77 293 2.0 3.0 0.00 0.00 0.00 87 1018.4
20260901121557 76 294 2.0 3.0 0.00 0.00 0.00 87 1018.3
20260901121357 76 312 2.0 3.0 0.00 0.00 0.00 88 1018.3
20260901121257 76 30 0.0 3.0 0.00 0.00 0.00 88 1018.3
20260901121156 76 319 2.0 3.0 0.00 0.00 0.00 88 1018.3
20260901121000 76 328 2.0 3.0 0.00 0.00 0.00 88 1018.3
20260901120657 76 342 2.0 3.0 0.00 0.00 0.00 88 1018.3
20260901120558 76 330 2.0 3.0 0.00 0.00 0.00 88 1018.3
20260901120500 76 303 2.0 3.0 0.00 0.00 0.00 88 1018.3
20260901120357 75 314 1.0 3.0 0.00 0.00 0.00 88 1018.3
20260901120257 75 307 2.0 3.0 0.00 0.00 0.00 88 1018.3
20260901120156 75 309 0.0 3.0 0.00 0.00 0.00 88 1018.3
20260901120057 75 300 1.0 3.0 0.00 0.00 0.00 88 1018.3
20260901120000 75 317 1.0 3.0 0.00 0.00 0.00 88 1018.2
20260901115857 75 316 2.0 3.0 0.00 0.00 0.00 89 1018.2
20260901115757 75 328 2.0 3.0 0.00 0.00 0.00 89 1018.3
20260901115657 75 342 2.0 3.0 0.00 0.00 0.00 88 1018.2
20260901115556 75 347 2.0 2.0 0.00 0.00 0.00 88 1018.2
20260901115458 75 13 1.0 2.0 0.00 0.00 0.00 88 1018.2
20260901115358 75 328 1.0 2.0 0.00 0.00 0.00 88 1018.2
20260901115158 75 324 1.0 2.0 0.00 0.00 0.00 88 1018.2
20260901115057 75 305 0.0 2.0 0.00 0.00 0.00 88 1018.2
20260901115000 75 333 2.0 2.0 0.00 0.00 0.00 88 1018.2
20260901114857 75 335 2.0 2.0 0.00 0.00 0.00 88 1018.2
20260901114757 75 338 1.0 2.0 0.00 0.00 0.00 88 1018.1
20260901114657 75 330 1.0 2.0 0.00 0.00 0.00 88 1018.2
20260901114557 75 335 1.0 2.0 0.00 0.00 0.00 89 1018.2
20260901114459 75 321 2.0 2.0 0.00 0.00 0.00 89 1018.2
20260901114257 75 317 0.0 2.0 0.00 0.00 0.00 89 1018.2
20260901114157 75 317 0.0 2.0 0.00 0.00 0.00 89 1018.1
20260901114057 75 330 2.0 2.0 0.00 0.00 0.00 89 1018.1
20260901113959 75 316 2.0 2.0 0.00 0.00 0.00 89 1018.2
20260901113857 74 314 0.0 2.0 0.00 0.00 0.00 89 1018.1
20260901113759 75 328 0.0 2.0 0.00 0.00 0.00 89 1018.0
20260901113657 75 307 1.0 2.0 0.00 0.00 0.00 89 1018.0
20260901113558 74 338 1.0 2.0 0.00 0.00 0.00 89 1018.0
20260901113459 74 323 1.0 2.0 0.00 0.00 0.00 89 1017.9
20260901113358 74 326 2.0 2.0 0.00 0.00 0.00 89 1018.0
20260901113157 74 340 2.0 2.0 0.00 0.00 0.00 89 1017.9
20260901113057 74 360 0.0 2.0 0.00 0.00 0.00 89 1017.9
20260901112959 74 326 0.0 2.0 0.00 0.00 0.00 89 1017.9
20260901112857 74 338 0.0 2.0 0.00 0.00 0.00 89 1018.0
20260901112757 74 321 0.0 2.0 0.00 0.00 0.00 89 1017.9
20260901112656 74 338 1.0 2.0 0.00 0.00 0.00 89 1017.9
20260901112357 74 319 1.0 2.0 0.00 0.00 0.00 88 1017.9
20260901112257 74 309 0.0 2.0 0.00 0.00 0.00 88 1017.9
20260901112157 74 335 1.0 2.0 0.00 0.00 0.00 88 1017.8
20260901111857 74 353 0.0 3.0 0.00 0.00 0.00 88 1017.8
20260901111657 75 321 0.0 3.0 0.00 0.00 0.00 88 1017.8
20260901111557 75 316 0.0 3.0 0.00 0.00 0.00 88 1017.8
20260901111256 75 331 2.0 3.0 0.00 0.00 0.00 88 1017.8
20260901111157 75 335 0.0 3.0 0.00 0.00 0.00 88 1017.8
20260901111057 75 314 2.0 3.0 0.00 0.00 0.00 88 1017.8
20260901110658 75 340 2.0 3.0 0.00 0.00 0.00 88 1017.8
20260901110557 75 328 2.0 3.0 0.00 0.00 0.00 88 1017.7
20260901110459 75 335 1.0 3.0 0.00 0.00 0.00 88 1017.7
20260901110357 75 339 2.0 3.0 0.00 0.00 0.00 88 1017.8
20260901110257 75 338 2.0 3.0 0.00 0.00 0.00 88 1017.8
20260901110157 75 342 1.0 3.0 0.00 0.00 0.00 88 1017.8
20260901110056 75 323 2.0 3.0 0.00 0.00 0.00 88 1017.7
20260901110002 75 323 2.0 3.0 0.00 0.00 0.00 88 1017.7
20260901105858 75 326 2.0 3.0 0.00 0.00 0.00 88 1017.7
20260901105557 75 317 2.0 2.0 0.00 0.00 0.00 88 1017.6
20260901105458 75 326 2.0 2.0 0.00 0.00 0.00 88 1017.6
20260901105256 75 324 0.0 2.0 0.00 0.00 0.00 88 1017.7
20260901105057 75 335 0.0 3.0 0.00 0.00 0.00 88 1017.6
20260901105002 75 314 0.0 3.0 0.00 0.00 0.00 88 1017.6
20260901104857 75 331 0.0 3.0 0.00 0.00 0.00 88 1017.6
20260901104756 75 328 0.0 3.0 0.00 0.00 0.00 88 1017.6
20260901104557 75 335 1.0 3.0 0.00 0.00 0.00 88 1017.5
20260901104357 75 323 1.0 3.0 0.00 0.00 0.00 88 1017.6
20260901104258 75 307 2.0 3.0 0.00 0.00 0.00 88 1017.6
20260901104156 75 333 2.0 3.0 0.00 0.00 0.00 88 1017.5
20260901104057 75 331 2.0 3.0 0.00 0.00 0.00 87 1017.5
20260901103857 75 295 2.0 3.0 0.00 0.00 0.00 87 1017.5
20260901103758 75 316 0.0 3.0 0.00 0.00 0.00 87 1017.5
20260901103700 75 316 1.0 3.0 0.00 0.00 0.00 87 1017.5
20260901103556 75 324 1.0 3.0 0.00 0.00 0.00 87 1017.5
20260901103459 75 328 2.0 3.0 0.00 0.00 0.00 87 1017.4
20260901103357 75 312 2.0 3.0 0.00 0.00 0.00 87 1017.4
20260901103258 75 319 2.0 3.0 0.00 0.00 0.00 87 1017.5
20260901103156 75 323 2.0 2.0 0.00 0.00 0.00 87 1017.5
20260901103057 75 304 2.0 2.0 0.00 0.00 0.00 87 1017.5
20260901102959 75 309 2.0 2.0 0.00 0.00 0.00 87 1017.5
20260901102859 75 307 2.0 2.0 0.00 0.00 0.00 87 1017.5
20260901102458 75 342 2.0 3.0 0.00 0.00 0.00 87 1017.6
20260901102356 75 305 2.0 3.0 0.00 0.00 0.00 87 1017.5
20260901102256 75 323 1.0 3.0 0.00 0.00 0.00 87 1017.5
20260901102158 75 321 2.0 3.0 0.00 0.00 0.00 87 1017.5
20260901102058 75 326 2.0 3.0 0.00 0.00 0.00 87 1017.5
20260901102000 75 316 2.0 3.0 0.00 0.00 0.00 87 1017.5
20260901101857 75 302 2.0 3.0 0.00 0.00 0.00 87 1017.5
20260901101758 75 305 2.0 3.0 0.00 0.00 0.00 87 1017.4
20260901101557 75 300 1.0 3.0 0.00 0.00 0.00 87 1017.4
20260901101458 75 321 2.0 3.0 0.00 0.00 0.00 87 1017.4
20260901101358 75 312 2.0 3.0 0.00 0.00 0.00 87 1017.3
20260901101157 75 302 1.0 3.0 0.00 0.00 0.00 87 1017.3
20260901101057 75 302 1.0 2.0 0.00 0.00 0.00 87 1017.3
20260901101000 75 333 1.0 3.0 0.00 0.00 0.00 87 1017.4
20260901100857 75 340 0.0 3.0 0.00 0.00 0.00 87 1017.3
20260901100757 75 333 2.0 3.0 0.00 0.00 0.00 87 1017.3
20260901100657 75 307 0.0 3.0 0.00 0.00 0.00 87 1017.3
20260901100558 75 324 1.0 3.0 0.00 0.00 0.00 87 1017.4
20260901100458 75 307 1.0 3.0 0.00 0.00 0.00 87 1017.3
20260901100357 75 333 1.0 3.0 0.00 0.00 0.00 87 1017.3
20260901100257 75 328 2.0 3.0 0.00 0.00 0.00 87 1017.3
20260901100157 75 312 0.0 3.0 0.00 0.00 0.00 87 1017.3
20260901100057 75 321 3.0 3.0 0.00 0.00 0.00 87 1017.3
20260901100002 75 328 2.0 3.0 0.00 0.00 0.00 87 1017.3
20260901095856 75 311 1.0 3.0 0.00 0.00 0.00 87 1017.3
20260901095757 75 314 1.0 3.0 0.00 0.00 0.00 87 1017.3
20260901095657 75 338 1.0 3.0 0.00 0.00 0.00 87 1017.2
20260901095556 75 319 2.0 3.0 0.00 0.00 0.00 87 1017.2
20260901095458 75 331 2.0 3.0 0.00 0.00 0.00 87 1017.2
20260901095257 75 316 1.0 3.0 0.00 0.00 0.00 87 1017.3
20260901094959 75 330 2.0 3.0 0.00 0.00 0.00 87 1017.1
20260901094857 75 337 2.0 3.0 0.00 0.00 0.00 87 1017.2
20260901094757 75 323 2.0 3.0 0.00 0.00 0.00 87 1017.1
20260901094658 75 345 2.0 3.0 0.00 0.00 0.00 87 1017.1
20260901094557 75 335 1.0 3.0 0.00 0.00 0.00 87 1017.0
20260901094457 75 335 2.0 3.0 0.00 0.00 0.00 87 1017.0
20260901094356 75 340 2.0 3.0 0.00 0.00 0.00 87 1017.1
20260901094257 75 319 2.0 3.0 0.00 0.00 0.00 87 1017.0
20260901094157 75 316 2.0 3.0 0.00 0.00 0.00 87 1017.0
20260901094057 75 319 1.0 3.0 0.00 0.00 0.00 87 1017.0
20260901094003 75 321 2.0 3.0 0.00 0.00 0.00 87 1017.1
20260901093857 75 323 2.0 2.0 0.00 0.00 0.00 87 1017.1
20260901093757 75 323 2.0 3.0 0.00 0.00 0.00 87 1016.9
20260901093657 75 323 1.0 3.0 0.00 0.00 0.00 87 1017.0
20260901093356 75 328 2.0 3.0 0.00 0.00 0.00 87 1016.9
20260901093257 75 324 2.0 3.0 0.00 0.00 0.00 87 1017.0
20260901093156 75 324 1.0 3.0 0.00 0.00 0.00 87 1017.0
20260901093057 75 340 2.0 3.0 0.00 0.00 0.00 87 1017.1
20260901092756 75 319 2.0 3.0 0.00 0.00 0.00 87 1017.0
20260901092658 75 335 2.0 3.0 0.00 0.00 0.00 87 1017.1
20260901092558 75 330 2.0 2.0 0.00 0.00 0.00 87 1017.0
20260901092458 75 323 2.0 2.0 0.00 0.00 0.00 87 1017.1
20260901092357 75 311 2.0 2.0 0.00 0.00 0.00 87 1017.1
20260901092157 75 317 2.0 2.0 0.00 0.00 0.00 87 1017.1
20260901092057 75 309 1.0 3.0 0.00 0.00 0.00 87 1017.1
20260901092004 75 314 2.0 3.0 0.00 0.00 0.00 87 1017.1
20260901091857 75 328 1.0 3.0 0.00 0.00 0.00 87 1017.1
20260901091758 75 323 2.0 3.0 0.00 0.00 0.00 87 1017.1
20260901091657 75 323 1.0 3.0 0.00 0.00 0.00 87 1017.0
20260901091557 75 307 1.0 3.0 0.00 0.00 0.00 87 1017.1
20260901091459 75 342 2.0 3.0 0.00 0.00 0.00 87 1017.0
20260901091357 75 316 2.0 3.0 0.00 0.00 0.00 87 1017.0
20260901091256 75 330 2.0 3.0 0.00 0.00 0.00 87 1017.0
20260901091158 75 326 2.0 3.0 0.00 0.00 0.00 87 1017.0
20260901091058 75 342 2.0 3.0 0.00 0.00 0.00 87 1017.0
20260901091000 75 326 1.0 3.0 0.00 0.00 0.00 87 1017.0
20260901090858 75 321 2.0 3.0 0.00 0.00 0.00 87 1017.0
20260901090758 75 333 2.0 3.0 0.00 0.00 0.00 87 1016.9
20260901090658 75 340 1.0 3.0 0.00 0.00 0.00 87 1016.9
20260901090557 75 331 2.0 3.0 0.00 0.00 0.00 87 1017.0
20260901090357 75 328 2.0 3.0 0.00 0.00 0.00 87 1017.0
20260901090257 75 330 2.0 3.0 0.00 0.00 0.00 87 1016.9
20260901090158 75 324 2.0 3.0 0.00 0.00 0.00 87 1016.9
20260901090057 75 326 2.0 3.0 0.00 0.00 0.00 87 1016.8
20260901085959 75 344 1.0 2.0 0.00 0.00 0.00 87 1016.8
20260901085856 75 310 1.0 2.0 0.00 0.00 0.00 87 1016.8
20260901085755 75 338 2.0 2.0 0.00 0.00 0.00 87 1016.7
20260901085655 75 323 1.0 2.0 0.00 0.00 0.00 87 1016.8
20260901085555 75 356 1.0 3.0 0.00 0.00 0.00 86 1016.8
20260901085457 75 340 0.0 3.0 0.00 0.00 0.00 86 1016.8
20260901085356 75 330 0.0 3.0 0.00 0.00 0.00 86 1016.8
20260901085256 75 360 0.0 3.0 0.00 0.00 0.00 86 1016.8
20260901085156 75 330 0.0 3.0 0.00 0.00 0.00 86 1016.8
20260901085056 75 321 1.0 3.0 0.00 0.00 0.00 86 1016.8
20260901084958 75 337 2.0 3.0 0.00 0.00 0.00 86 1016.8
20260901084756 75 331 2.0 3.0 0.00 0.00 0.00 86 1016.9
20260901084656 75 340 2.0 3.0 0.00 0.00 0.00 86 1016.8
20260901084556 75 335 2.0 3.0 0.00 0.00 0.00 86 1016.8
20260901084457 75 324 2.0 3.0 0.00 0.00 0.00 86 1016.8
20260901084257 75 335 1.0 3.0 0.00 0.00 0.00 86 1016.8
20260901084156 75 330 0.0 3.0 0.00 0.00 0.00 86 1016.8
20260901084056 75 335 2.0 3.0 0.00 0.00 0.00 86 1016.8
20260901083958 75 326 2.0 3.0 0.00 0.00 0.00 86 1016.8
20260901083855 75 326 2.0 3.0 0.00 0.00 0.00 86 1016.8
20260901083756 75 326 1.0 3.0 0.00 0.00 0.00 86 1016.8
20260901083657 75 317 2.0 3.0 0.00 0.00 0.00 86 1016.9
20260901083557 75 314 2.0 3.0 0.00 0.00 0.00 86 1016.9
20260901083457 75 335 2.0 3.0 0.00 0.00 0.00 86 1016.8
20260901083356 75 335 2.0 3.0 0.00 0.00 0.00 86 1016.9
20260901083257 75 326 2.0 3.0 0.00 0.00 0.00 86 1016.9
20260901083156 76 314 2.0 3.0 0.00 0.00 0.00 86 1016.9
20260901083055 76 338 2.0 3.0 0.00 0.00 0.00 86 1016.9
20260901082958 76 307 2.0 3.0 0.00 0.00 0.00 86 1016.9
20260901082856 76 293 2.0 3.0 0.00 0.00 0.00 86 1016.9
20260901082756 76 314 2.0 3.0 0.00 0.00 0.00 86 1016.9
20260901082556 76 319 2.0 3.0 0.00 0.00 0.00 86 1016.9
20260901082457 76 302 2.0 3.0 0.00 0.00 0.00 86 1016.9
20260901082355 76 321 2.0 3.0 0.00 0.00 0.00 86 1016.8
20260901082256 76 330 1.0 3.0 0.00 0.00 0.00 86 1016.8
20260901082155 76 311 2.0 3.0 0.00 0.00 0.00 86 1016.9
20260901081958 76 332 2.0 3.0 0.00 0.00 0.00 86 1016.9
20260901081856 76 323 2.0 3.0 0.00 0.00 0.00 86 1016.8
20260901081756 76 310 2.0 3.0 0.00 0.00 0.00 86 1016.7
20260901081656 76 328 2.0 3.0 0.00 0.00 0.00 86 1016.8
20260901081557 76 304 2.0 3.0 0.00 0.00 0.00 86 1016.8
20260901081458 76 307 1.0 3.0 0.00 0.00 0.00 86 1016.8
20260901081256 76 310 2.0 3.0 0.00 0.00 0.00 86 1016.8
20260901081056 76 316 1.0 3.0 0.00 0.00 0.00 86 1016.8
20260901081000 76 309 0.0 3.0 0.00 0.00 0.00 86 1016.9
20260901080856 76 314 2.0 3.0 0.00 0.00 0.00 86 1016.9
20260901080755 76 296 0.0 3.0 0.00 0.00 0.00 86 1016.8
20260901080657 76 317 2.0 3.0 0.00 0.00 0.00 86 1016.9
20260901080556 76 312 1.0 3.0 0.00 0.00 0.00 86 1016.8
20260901080457 76 321 2.0 3.0 0.00 0.00 0.00 86 1016.9
20260901080357 76 314 2.0 3.0 0.00 0.00 0.00 86 1016.9
20260901080257 76 310 2.0 3.0 0.00 0.00 0.00 86 1016.8
20260901080156 76 317 1.0 3.0 0.00 0.00 0.00 86 1016.9
20260901080057 76 323 1.0 3.0 0.00 0.00 0.00 86 1016.8
20260901075959 76 296 2.0 3.0 0.00 0.00 0.00 86 1016.8
20260901075856 76 295 3.0 3.0 0.00 0.00 0.00 86 1016.9
20260901075756 76 326 2.0 2.0 0.00 0.00 0.00 86 1016.9
20260901075655 76 304 1.0 2.0 0.00 0.00 0.00 86 1016.9
20260901075557 76 321 1.0 2.0 0.00 0.00 0.00 86 1016.9
20260901075458 76 314 2.0 2.0 0.00 0.00 0.00 86 1016.9
20260901075356 76 310 2.0 2.0 0.00 0.00 0.00 86 1016.9
20260901075256 76 328 1.0 2.0 0.00 0.00 0.00 86 1016.9
20260901075157 76 335 1.0 2.0 0.00 0.00 0.00 86 1017.0
20260901075057 76 304 0.0 2.0 0.00 0.00 0.00 86 1017.0
20260901074856 76 307 0.0 2.0 0.00 0.00 0.00 86 1016.9
20260901074756 76 326 2.0 2.0 0.00 0.00 0.00 86 1017.0
20260901074556 76 316 1.0 2.0 0.00 0.00 0.00 86 1017.0
20260901074458 76 324 2.0 2.0 0.00 0.00 0.00 86 1017.0
20260901074355 76 307 2.0 2.0 0.00 0.00 0.00 86 1017.1
20260901074257 76 298 2.0 2.0 0.00 0.00 0.00 86 1017.1
20260901074156 76 311 2.0 2.0 0.00 0.00 0.00 86 1017.0
20260901074057 76 303 2.0 2.0 0.00 0.00 0.00 86 1017.0
20260901073958 76 311 1.0 2.0 0.00 0.00 0.00 86 1017.0
20260901073657 76 319 1.0 2.0 0.00 0.00 0.00 85 1017.0
20260901073556 76 324 0.0 2.0 0.00 0.00 0.00 85 1017.0
20260901073356 76 301 1.0 2.0 0.00 0.00 0.00 86 1017.1
20260901073256 76 316 2.0 2.0 0.00 0.00 0.00 85 1017.0
20260901073156 76 312 1.0 2.0 0.00 0.00 0.00 85 1017.0
20260901073056 76 319 1.0 2.0 0.00 0.00 0.00 85 1016.9
20260901072959 76 316 2.0 2.0 0.00 0.00 0.00 85 1016.9
20260901072857 76 324 2.0 2.0 0.00 0.00 0.00 85 1016.9
20260901072755 76 307 0.0 2.0 0.00 0.00 0.00 85 1017.0
20260901072656 76 324 1.0 2.0 0.00 0.00 0.00 85 1017.0
20260901072556 76 314 1.0 2.0 0.00 0.00 0.00 85 1016.9
20260901072457 76 316 1.0 2.0 0.00 0.00 0.00 85 1017.0
20260901072356 76 307 0.0 2.0 0.00 0.00 0.00 85 1017.0
20260901072256 76 326 0.0 2.0 0.00 0.00 0.00 85 1017.0
20260901072156 76 311 0.0 2.0 0.00 0.00 0.00 85 1017.0
20260901072056 76 316 1.0 2.0 0.00 0.00 0.00 85 1017.0
20260901071959 76 328 2.0 2.0 0.00 0.00 0.00 85 1017.1
20260901071857 76 312 0.0 2.0 0.00 0.00 0.00 85 1017.1
20260901071656 76 312 0.0 2.0 0.00 0.00 0.00 85 1017.1
20260901071556 76 310 0.0 2.0 0.00 0.00 0.00 85 1017.1
20260901071458 76 307 0.0 3.0 0.00 0.00 0.00 85 1017.1
20260901071356 76 316 0.0 3.0 0.00 0.00 0.00 85 1017.1
20260901071256 76 342 1.0 3.0 0.00 0.00 0.00 85 1017.0
20260901071156 76 335 0.0 3.0 0.00 0.00 0.00 85 1017.0
20260901071057 76 336 1.0 3.0 0.00 0.00 0.00 85 1017.0
20260901071000 76 338 1.0 3.0 0.00 0.00 0.00 85 1017.0
20260901070857 76 319 2.0 3.0 0.00 0.00 0.00 85 1017.0
20260901070757 76 326 1.0 3.0 0.00 0.00 0.00 85 1017.0
20260901070657 76 314 1.0 3.0 0.00 0.00 0.00 85 1017.1
20260901070556 76 326 2.0 3.0 0.00 0.00 0.00 85 1017.1
20260901070457 76 323 2.0 3.0 0.00 0.00 0.00 85 1017.1
20260901070355 76 316 2.0 3.0 0.00 0.00 0.00 84 1017.1
20260901070256 76 300 2.0 2.0 0.00 0.00 0.00 84 1017.1
20260901070156 76 323 2.0 2.0 0.00 0.00 0.00 84 1017.2
20260901065958 76 316 2.0 3.0 0.00 0.00 0.00 84 1017.2
20260901065857 76 330 2.0 3.0 0.00 0.00 0.00 84 1017.2
20260901065756 76 323 0.0 3.0 0.00 0.00 0.00 84 1017.1
20260901065656 76 311 0.0 3.0 0.00 0.00 0.00 84 1017.2
20260901065556 76 316 0.0 3.0 0.00 0.00 0.00 84 1017.1
20260901065457 77 319 1.0 3.0 0.00 0.00 0.00 84 1017.1
20260901065356 77 317 1.0 3.0 0.00 0.00 0.00 84 1017.2
20260901065256 77 303 1.0 3.0 0.00 0.00 0.00 84 1017.2
20260901065157 77 309 3.0 3.0 0.00 0.00 0.00 84 1017.1
20260901065057 77 312 0.0 3.0 0.00 0.00 0.00 84 1017.2
20260901064959 77 289 2.0 3.0 0.00 0.00 0.00 84 1017.2
20260901064856 77 311 1.0 3.0 0.00 0.00 0.00 84 1017.3
20260901064557 77 275 0.0 2.0 0.00 0.00 0.00 84 1017.3
20260901064457 77 295 1.0 2.0 0.00 0.00 0.00 84 1017.3
20260901064356 77 309 2.0 2.0 0.00 0.00 0.00 84 1017.4
20260901064256 77 316 1.0 2.0 0.00 0.00 0.00 84 1017.4
20260901064056 77 312 1.0 2.0 0.00 0.00 0.00 84 1017.4
20260901063959 77 326 1.0 2.0 0.00 0.00 0.00 84 1017.5
20260901063856 77 311 1.0 3.0 0.00 0.00 0.00 83 1017.5
20260901063755 77 304 0.0 3.0 0.00 0.00 0.00 83 1017.5
20260901063656 77 302 0.0 3.0 0.00 0.00 0.00 83 1017.5
20260901063556 77 319 2.0 3.0 0.00 0.00 0.00 83 1017.5
20260901063255 77 310 2.0 3.0 0.00 0.00 0.00 83 1017.6
20260901063156 77 326 2.0 3.0 0.00 0.00 0.00 83 1017.7
20260901063056 77 326 1.0 3.0 0.00 0.00 0.00 83 1017.7
20260901062856 77 333 1.0 3.0 0.00 0.00 0.00 83 1017.6
20260901062756 77 319 0.0 3.0 0.00 0.00 0.00 83 1017.6
20260901062657 77 323 0.0 3.0 0.00 0.00 0.00 83 1017.6
20260901062556 77 349 2.0 3.0 0.00 0.00 0.00 83 1017.6
20260901062457 77 4 2.0 3.0 0.00 0.00 0.00 83 1017.6
20260901062356 77 335 0.0 3.0 0.00 0.00 0.00 83 1017.5
20260901062256 77 333 1.0 3.0 0.00 0.00 0.00 83 1017.5
20260901062156 77 314 2.0 3.0 0.00 0.00 0.00 83 1017.5
20260901062057 77 314 2.0 3.0 0.00 0.00 0.00 83 1017.5
20260901062000 77 319 2.0 3.0 0.00 0.00 0.00 83 1017.5
20260901061856 77 309 2.0 3.0 0.00 0.00 0.00 82 1017.5
20260901061756 77 330 2.0 3.0 0.00 0.00 0.00 83 1017.4
20260901061656 77 328 1.0 3.0 0.00 0.00 0.00 82 1017.5
20260901061556 77 317 2.0 3.0 0.00 0.00 0.00 82 1017.4
20260901061457 77 286 2.0 3.0 0.00 0.00 0.00 82 1017.4
20260901061356 77 314 0.0 3.0 0.00 0.00 0.00 82 1017.4
20260901061157 77 293 2.0 3.0 0.00 0.00 0.00 82 1017.4
20260901061055 77 314 2.0 3.0 0.00 0.00 0.00 82 1017.4
20260901060958 78 316 1.0 3.0 0.00 0.00 0.00 82 1017.4
20260901060856 78 263 1.0 3.0 0.00 0.00 0.00 82 1017.5
20260901060756 78 293 2.0 3.0 0.00 0.00 0.00 82 1017.6
20260901060657 78 324 3.0 3.0 0.00 0.00 0.00 82 1017.6
20260901060557 78 316 1.0 3.0 0.00 0.00 0.00 82 1017.7
20260901060458 78 326 0.0 3.0 0.00 0.00 0.00 82 1017.7
20260901060257 78 326 0.0 3.0 0.00 0.00 0.00 81 1017.7
20260901060156 78 310 0.0 3.0 0.00 0.00 0.00 81 1017.6
20260901060055 78 293 0.0 3.0 0.00 0.00 0.00 81 1017.7
20260901060002 78 254 2.0 3.0 0.00 0.00 0.00 81 1017.7
20260901055859 78 266 2.0 3.0 0.00 0.00 0.00 81 1017.6
20260901055759 78 266 2.0 3.0 0.00 0.00 0.00 81 1017.6
20260901055658 78 268 2.0 3.0 0.00 0.00 0.00 81 1017.6
20260901055600 78 253 3.0 3.0 0.00 0.00 0.00 81 1017.6
20260901055500 78 265 2.0 3.0 0.00 0.00 0.00 80 1017.6
20260901055359 78 283 0.0 3.0 0.00 0.00 0.00 80 1017.5
20260901055259 78 286 1.0 3.0 0.00 0.00 0.00 80 1017.5
20260901055004 78 287 0.0 2.0 0.00 0.00 0.00 81 1017.6
20260901054500 78 321 2.0 2.0 0.00 0.00 0.00 81 1017.6
20260901054359 78 321 0.0 2.0 0.00 0.00 0.00 81 1017.6
20260901054259 78 309 1.0 2.0 0.00 0.00 0.00 81 1017.5
20260901054159 78 312 1.0 2.0 0.00 0.00 0.00 81 1017.5
20260901054059 78 314 0.0 2.0 0.00 0.00 0.00 81 1017.6
20260901053859 78 309 1.0 2.0 0.00 0.00 0.00 81 1017.7
20260901053758 78 321 2.0 2.0 0.00 0.00 0.00 81 1017.7
20260901053659 78 323 1.0 2.0 0.00 0.00 0.00 81 1017.7
20260901053559 78 328 2.0 2.0 0.00 0.00 0.00 81 1017.6
20260901053501 78 296 0.0 2.0 0.00 0.00 0.00 81 1017.6
20260901053359 78 293 1.0 2.0 0.00 0.00 0.00 81 1017.6
20260901053259 78 312 2.0 2.0 0.00 0.00 0.00 81 1017.6
20260901053159 78 296 2.0 2.0 0.00 0.00 0.00 81 1017.6
20260901053003 78 317 1.0 1.0 0.00 0.00 0.00 82 1017.6
20260901052859 78 323 0.0 1.0 0.00 0.00 0.00 81 1017.6
20260901052759 78 335 0.0 1.0 0.00 0.00 0.00 81 1017.6
20260901052659 78 335 0.0 2.0 0.00 0.00 0.00 81 1017.6
20260901052559 78 296 0.0 2.0 0.00 0.00 0.00 81 1017.6
20260901052503 78 274 0.0 2.0 0.00 0.00 0.00 81 1017.7
20260901052259 78 302 0.0 3.0 0.00 0.00 0.00 81 1017.6
20260901052058 78 302 0.0 3.0 0.00 0.00 0.00 81 1017.6
20260901052004 78 302 0.0 3.0 0.00 0.00 0.00 81 1017.6
20260901051859 78 294 0.0 3.0 0.00 0.00 0.00 81 1017.7
20260901051759 78 307 2.0 3.0 0.00 0.00 0.00 81 1017.7
20260901051500 78 302 0.0 3.0 0.00 0.00 0.00 81 1017.8
20260901051359 78 302 0.0 3.0 0.00 0.00 0.00 81 1017.8
20260901051258 78 300 0.0 3.0 0.00 0.00 0.00 81 1017.7
20260901051059 78 307 2.0 3.0 0.00 0.00 0.00 80 1017.7
20260901051003 78 296 2.0 3.0 0.00 0.00 0.00 80 1017.8
20260901050859 78 295 2.0 3.0 0.00 0.00 0.00 80 1017.7
20260901050658 78 304 2.0 3.0 0.00 0.00 0.00 80 1017.8
20260901050559 78 305 0.0 3.0 0.00 0.00 0.00 80 1017.7
20260901050501 78 297 0.0 3.0 0.00 0.00 0.00 80 1017.7
20260901050359 78 309 0.0 3.0 0.00 0.00 0.00 80 1017.6
20260901050259 78 295 2.0 3.0 0.00 0.00 0.00 80 1017.6
20260901050159 78 302 2.0 3.0 0.00 0.00 0.00 80 1017.6
20260901050007 79 321 2.0 3.0 0.00 0.00 0.00 80 1017.6
20260901045759 79 321 0.0 3.0 0.00 0.00 0.00 80 1017.7
20260901045658 79 319 0.0 3.0 0.00 0.00 0.00 80 1017.7
20260901045500 79 301 2.0 3.0 0.00 0.00 0.00 80 1017.7
20260901045359 79 295 2.0 3.0 0.00 0.00 0.00 80 1017.7
20260901045259 79 307 0.0 3.0 0.00 0.00 0.00 80 1017.8
20260901045158 79 295 2.0 3.0 0.00 0.00 0.00 80 1017.8
20260901045059 79 296 2.0 3.0 0.00 0.00 0.00 80 1017.8
20260901045004 79 307 2.0 3.0 0.00 0.00 0.00 80 1017.8
20260901044859 79 302 2.0 3.0 0.00 0.00 0.00 80 1017.7
20260901044659 79 319 2.0 3.0 0.00 0.00 0.00 80 1017.7
20260901044559 79 286 2.0 3.0 0.00 0.00 0.00 80 1017.7
20260901044259 79 302 2.0 3.0 0.00 0.00 0.00 80 1017.7
20260901044159 79 303 1.0 3.0 0.00 0.00 0.00 79 1017.7
20260901044004 79 273 0.0 3.0 0.00 0.00 0.00 79 1017.7
20260901043659 79 302 2.0 3.0 0.00 0.00 0.00 79 1017.7
20260901043500 79 311 1.0 3.0 0.00 0.00 0.00 79 1017.7
20260901043358 79 293 2.0 3.0 0.00 0.00 0.00 79 1017.8
20260901043259 79 303 0.0 3.0 0.00 0.00 0.00 79 1017.8
20260901043159 79 284 2.0 3.0 0.00 0.00 0.00 79 1017.8
20260901042859 79 302 1.0 3.0 0.00 0.00 0.00 79 1017.9
20260901042759 79 303 2.0 3.0 0.00 0.00 0.00 79 1017.9
20260901042559 79 302 2.0 3.0 0.00 0.00 0.00 79 1017.9
20260901042500 79 311 2.0 3.0 0.00 0.00 0.00 79 1017.7
20260901042259 79 298 2.0 3.0 0.00 0.00 0.00 79 1017.8
20260901042003 79 314 2.0 3.0 0.00 0.00 0.00 79 1017.7
20260901041859 79 301 2.0 3.0 0.00 0.00 0.00 79 1017.8
20260901041658 79 296 3.0 3.0 0.00 0.00 0.00 79 1017.7
20260901041559 79 304 1.0 2.0 0.00 0.00 0.00 79 1017.7
20260901041358 79 330 1.0 2.0 0.00 0.00 0.00 79 1017.6
20260901041158 79 300 2.0 2.0 0.00 0.00 0.00 79 1017.7
20260901041059 79 281 0.0 2.0 0.00 0.00 0.00 79 1017.7
20260901041002 79 295 1.0 3.0 0.00 0.00 0.00 79 1017.7
20260901040858 79 290 1.0 3.0 0.00 0.00 0.00 79 1017.8
20260901040759 79 300 0.0 3.0 0.00 0.00 0.00 78 1017.7
20260901040659 79 286 1.0 3.0 0.00 0.00 0.00 78 1017.8
20260901040558 79 303 0.0 3.0 0.00 0.00 0.00 78 1017.8
20260901040503 79 290 0.0 3.0 0.00 0.00 0.00 78 1017.8
20260901040358 79 302 0.0 3.0 0.00 0.00 0.00 78 1017.8
20260901040200 79 295 2.0 3.0 0.00 0.00 0.00 78 1017.7
20260901040100 79 263 1.0 3.0 0.00 0.00 0.00 78 1017.7
20260901040004 79 307 0.0 3.0 0.00 0.00 0.00 78 1017.7
20260901035758 79 267 0.0 3.0 0.00 0.00 0.00 78 1017.7
20260901035659 79 309 0.0 3.0 0.00 0.00 0.00 78 1017.7
20260901035600 79 309 0.0 3.0 0.00 0.00 0.00 78 1017.7
20260901035503 80 303 1.0 3.0 0.00 0.00 0.00 78 1017.7
20260901035359 80 296 2.0 3.0 0.00 0.00 0.00 78 1017.6
20260901035300 80 293 2.0 3.0 0.00 0.00 0.00 78 1017.6
20260901035158 80 288 2.0 2.0 0.00 0.00 0.00 78 1017.7
20260901035100 80 307 2.0 2.0 0.00 0.00 0.00 78 1017.7
20260901035003 80 317 1.0 2.0 0.00 0.00 0.00 78 1017.7
20260901034900 80 303 2.0 2.0 0.00 0.00 0.00 77 1017.7
20260901034800 80 300 2.0 3.0 0.00 0.00 0.00 77 1017.7
20260901034659 80 314 2.0 3.0 0.00 0.00 0.00 77 1017.7
20260901034600 80 340 2.0 3.0 0.00 0.00 0.00 77 1017.7
20260901034501 80 317 2.0 3.0 0.00 0.00 0.00 77 1017.8
20260901034358 80 323 1.0 3.0 0.00 0.00 0.00 77 1017.8
20260901034300 80 321 2.0 3.0 0.00 0.00 0.00 77 1017.8
20260901034200 80 328 2.0 3.0 0.00 0.00 0.00 77 1017.8
20260901034059 80 307 1.0 3.0 0.00 0.00 0.00 77 1017.9
20260901034004 80 338 1.0 3.0 0.00 0.00 0.00 77 1017.8
20260901033900 80 295 2.0 3.0 0.00 0.00 0.00 77 1017.8
20260901033758 80 298 1.0 3.0 0.00 0.00 0.00 77 1017.8
20260901033658 80 314 2.0 3.0 0.00 0.00 0.00 77 1017.8
20260901033559 80 310 2.0 3.0 0.00 0.00 0.00 77 1017.8
20260901033500 80 314 2.0 3.0 0.00 0.00 0.00 77 1017.8
20260901033401 80 310 0.0 3.0 0.00 0.00 0.00 77 1017.7
20260901033259 80 314 2.0 3.0 0.00 0.00 0.00 77 1017.8
20260901033058 80 304 0.0 3.0 0.00 0.00 0.00 77 1017.8
20260901033004 80 304 1.0 3.0 0.00 0.00 0.00 77 1017.8
20260901032900 80 307 2.0 3.0 0.00 0.00 0.00 77 1017.9
20260901032700 80 314 2.0 3.0 0.00 0.00 0.00 76 1017.8
20260901032559 80 303 2.0 3.0 0.00 0.00 0.00 76 1017.8
20260901032503 80 302 1.0 2.0 0.00 0.00 0.00 76 1017.8
20260901032358 80 296 2.0 2.0 0.00 0.00 0.00 76 1017.8
20260901032259 80 303 0.0 2.0 0.00 0.00 0.00 76 1017.8
20260901032159 80 295 0.0 2.0 0.00 0.00 0.00 76 1017.9
20260901032058 81 323 0.0 2.0 0.00 0.00 0.00 76 1017.8
20260901032003 81 300 2.0 2.0 0.00 0.00 0.00 76 1017.8
20260901031858 81 317 0.0 2.0 0.00 0.00 0.00 76 1017.8
20260901031759 81 321 0.0 2.0 0.00 0.00 0.00 76 1017.9
20260901031659 81 281 0.0 2.0 0.00 0.00 0.00 76 1017.8
20260901031504 81 310 0.0 2.0 0.00 0.00 0.00 75 1017.8
20260901031400 81 323 0.0 2.0 0.00 0.00 0.00 75 1017.8
20260901031159 81 308 1.0 2.0 0.00 0.00 0.00 75 1017.8
20260901031058 81 322 0.0 2.0 0.00 0.00 0.00 75 1017.9
20260901031003 81 340 0.0 2.0 0.00 0.00 0.00 75 1017.8
20260901030859 81 314 0.0 2.0 0.00 0.00 0.00 75 1017.9
20260901030758 81 309 0.0 2.0 0.00 0.00 0.00 75 1017.7
20260901030700 81 305 0.0 2.0 0.00 0.00 0.00 75 1017.8
20260901030558 81 294 1.0 2.0 0.00 0.00 0.00 75 1017.8
20260901030500 81 307 0.0 2.0 0.00 0.00 0.00 75 1017.8
20260901030359 81 304 1.0 2.0 0.00 0.00 0.00 75 1017.8
20260901030200 81 317 1.0 2.0 0.00 0.00 0.00 74 1017.8
20260901030059 81 316 1.0 2.0 0.00 0.00 0.00 74 1017.9
20260901030004 81 308 1.0 2.0 0.00 0.00 0.00 74 1017.9
20260901025858 81 309 0.0 2.0 0.00 0.00 0.00 74 1017.9
20260901025700 81 309 0.0 2.0 0.00 0.00 0.00 74 1017.8
20260901025559 81 309 0.0 2.0 0.00 0.00 0.00 74 1017.8
20260901025501 81 309 0.0 2.0 0.00 0.00 0.00 74 1017.7
20260901025359 81 297 0.0 2.0 0.00 0.00 0.00 74 1017.7
20260901025300 82 303 1.0 2.0 0.00 0.00 0.00 74 1017.7
20260901025158 82 319 0.0 2.0 0.00 0.00 0.00 74 1017.8
20260901025059 82 319 0.0 2.0 0.00 0.00 0.00 74 1017.7
20260901025003 82 316 0.0 2.0 0.00 0.00 0.00 74 1017.7
20260901024759 82 328 1.0 2.0 0.00 0.00 0.00 73 1017.7
20260901024659 82 331 0.0 3.0 0.00 0.00 0.00 73 1017.8
20260901024558 82 324 0.0 3.0 0.00 0.00 0.00 74 1017.8
20260901024502 82 314 0.0 3.0 0.00 0.00 0.00 74 1017.7
20260901024358 82 333 0.0 3.0 0.00 0.00 0.00 74 1017.8
20260901024259 82 340 1.0 3.0 0.00 0.00 0.00 74 1017.8
20260901024159 82 326 0.0 3.0 0.00 0.00 0.00 74 1017.7
20260901024059 82 20 0.0 3.0 0.00 0.00 0.00 74 1017.8
20260901024004 82 335 0.0 3.0 0.00 0.00 0.00 74 1017.8
20260901023800 82 321 0.0 2.0 0.00 0.00 0.00 74 1017.8
20260901023700 82 331 0.0 2.0 0.00 0.00 0.00 74 1017.8
20260901023600 82 345 0.0 2.0 0.00 0.00 0.00 74 1017.8
20260901023359 82 311 0.0 1.0 0.00 0.00 0.00 74 1017.8
20260901023100 82 317 0.0 1.0 0.00 0.00 0.00 74 1017.9
20260901023005 82 312 0.0 1.0 0.00 0.00 0.00 74 1017.8
20260901022859 82 312 0.0 1.0 0.00 0.00 0.00 73 1017.8
20260901022759 82 312 0.0 1.0 0.00 0.00 0.00 73 1017.8
20260901022559 82 312 0.0 1.0 0.00 0.00 0.00 73 1017.8
20260901022503 82 312 0.0 1.0 0.00 0.00 0.00 73 1017.8
20260901022259 82 259 0.0 2.0 0.00 0.00 0.00 73 1017.8
20260901022100 82 252 0.0 2.0 0.00 0.00 0.00 73 1017.8
20260901022004 82 278 0.0 2.0 0.00 0.00 0.00 72 1017.8
20260901021900 82 294 0.0 2.0 0.00 0.00 0.00 72 1017.8
20260901021759 82 294 0.0 2.0 0.00 0.00 0.00 72 1017.8
20260901021558 82 301 0.0 2.0 0.00 0.00 0.00 72 1017.7
20260901021504 82 276 1.0 2.0 0.00 0.00 0.00 72 1017.7
20260901021359 82 295 0.0 2.0 0.00 0.00 0.00 72 1017.7
20260901021259 82 304 0.0 2.0 0.00 0.00 0.00 72 1017.7
20260901021158 82 314 2.0 2.0 0.00 0.00 0.00 72 1017.7
20260901021059 82 305 1.0 2.0 0.00 0.00 0.00 72 1017.7
20260901021004 82 319 0.0 2.0 0.00 0.00 0.00 72 1017.7
20260901020858 82 328 0.0 2.0 0.00 0.00 0.00 72 1017.6
20260901020659 83 293 0.0 2.0 0.00 0.00 0.00 72 1017.6
20260901020559 83 294 0.0 2.0 0.00 0.00 0.00 72 1017.6
20260901020500 83 304 0.0 2.0 0.00 0.00 0.00 72 1017.5
20260901020359 83 304 0.0 2.0 0.00 0.00 0.00 72 1017.5
20260901020159 83 304 0.0 2.0 0.00 0.00 0.00 72 1017.4
20260901020059 83 293 0.0 2.0 0.00 0.00 0.00 72 1017.5
20260901015900 83 293 0.0 2.0 0.00 0.00 0.00 72 1017.5
20260901015759 83 293 0.0 2.0 0.00 0.00 0.00 72 1017.5
20260901015659 83 293 0.0 2.0 0.00 0.00 0.00 72 1017.5
20260901015559 83 303 0.0 2.0 0.00 0.00 0.00 72 1017.5
20260901015500 83 303 0.0 2.0 0.00 0.00 0.00 71 1017.5
20260901015359 83 279 1.0 2.0 0.00 0.00 0.00 71 1017.5
20260901015300 83 309 0.0 2.0 0.00 0.00 0.00 71 1017.5
20260901015058 83 311 0.0 2.0 0.00 0.00 0.00 71 1017.4
20260901015004 83 311 0.0 2.0 0.00 0.00 0.00 71 1017.4
20260901014759 83 311 0.0 2.0 0.00 0.00 0.00 71 1017.5
20260901014700 83 296 0.0 2.0 0.00 0.00 0.00 71 1017.5
20260901014600 83 296 0.0 2.0 0.00 0.00 0.00 71 1017.4
20260901014503 83 279 2.0 2.0 0.00 0.00 0.00 71 1017.4
20260901014258 83 278 0.0 2.0 0.00 0.00 0.00 71 1017.4
20260901014004 83 303 0.0 2.0 0.00 0.00 0.00 70 1017.3
20260901013859 83 303 0.0 2.0 0.00 0.00 0.00 70 1017.3
20260901013759 83 303 0.0 2.0 0.00 0.00 0.00 70 1017.3
20260901013659 84 303 0.0 2.0 0.00 0.00 0.00 70 1017.3
20260901013559 84 316 0.0 2.0 0.00 0.00 0.00 70 1017.2
20260901013500 84 307 1.0 2.0 0.00 0.00 0.00 70 1017.1
20260901013359 84 269 0.0 2.0 0.00 0.00 0.00 70 1017.2
20260901013259 84 269 0.0 2.0 0.00 0.00 0.00 70 1017.1
20260901013100 84 249 0.0 2.0 0.00 0.00 0.00 70 1017.1
20260901013005 84 249 0.0 2.0 0.00 0.00 0.00 70 1017.1
20260901012859 84 249 0.0 2.0 0.00 0.00 0.00 69 1017.1
20260901012759 84 249 0.0 2.0 0.00 0.00 0.00 69 1017.0
20260901012659 84 249 0.0 2.0 0.00 0.00 0.00 69 1017.1
20260901012559 84 293 0.0 2.0 0.00 0.00 0.00 69 1017.0
20260901012503 84 293 0.0 2.0 0.00 0.00 0.00 69 1017.0
20260901012358 84 293 0.0 2.0 0.00 0.00 0.00 69 1017.0
20260901012259 84 302 0.0 1.0 0.00 0.00 0.00 69 1017.0
20260901012158 84 298 0.0 2.0 0.00 0.00 0.00 69 1017.0
20260901012059 84 301 0.0 2.0 0.00 0.00 0.00 69 1017.1
20260901011859 84 302 0.0 2.0 0.00 0.00 0.00 68 1017.1
20260901011559 84 314 0.0 2.0 0.00 0.00 0.00 68 1017.0
20260901011500 84 314 0.0 2.0 0.00 0.00 0.00 68 1017.0
20260901011259 84 314 0.0 2.0 0.00 0.00 0.00 68 1016.9
20260901011159 84 307 0.0 2.0 0.00 0.00 0.00 68 1016.9
20260901011059 84 283 0.0 2.0 0.00 0.00 0.00 68 1016.9
20260901010800 84 336 0.0 2.0 0.00 0.00 0.00 68 1016.9
20260901010659 84 336 0.0 2.0 0.00 0.00 0.00 68 1017.0
20260901010600 84 299 0.0 2.0 0.00 0.00 0.00 68 1016.9
20260901010501 85 272 0.0 2.0 0.00 0.00 0.00 68 1016.9
20260901010359 85 272 0.0 2.0 0.00 0.00 0.00 68 1016.9
20260901010259 85 272 0.0 2.0 0.00 0.00 0.00 67 1016.8
20260901010200 85 286 0.0 2.0 0.00 0.00 0.00 67 1016.7
20260901010059 85 286 0.0 2.0 0.00 0.00 0.00 67 1016.7
20260901010004 85 285 0.0 2.0 0.00 0.00 0.00 67 1016.7
20260901005758 85 289 0.0 2.0 0.00 0.00 0.00 67 1016.8
20260901005658 85 295 2.0 2.0 0.00 0.00 0.00 67 1016.7
20260901005459 85 314 0.0 1.0 0.00 0.00 0.00 67 1016.7
20260901005357 85 314 0.0 1.0 0.00 0.00 0.00 67 1016.7
20260901005158 85 304 0.0 1.0 0.00 0.00 0.00 67 1016.8
20260901005058 85 304 0.0 2.0 0.00 0.00 0.00 67 1016.8
20260901004858 85 295 0.0 2.0 0.00 0.00 0.00 66 1016.7
20260901004758 85 286 0.0 2.0 0.00 0.00 0.00 67 1016.6
20260901004658 85 322 0.0 2.0 0.00 0.00 0.00 66 1016.6
20260901004558 85 322 0.0 2.0 0.00 0.00 0.00 66 1016.7
20260901004458 85 322 0.0 2.0 0.00 0.00 0.00 66 1016.6
20260901004359 85 322 0.0 2.0 0.00 0.00 0.00 66 1016.6
20260901004258 85 322 0.0 2.0 0.00 0.00 0.00 66 1016.6
20260901004158 85 316 1.0 2.0 0.00 0.00 0.00 66 1016.6
20260901004058 85 295 0.0 2.0 0.00 0.00 0.00 65 1016.6
20260901004000 85 296 0.0 2.0 0.00 0.00 0.00 65 1016.6
20260901003858 86 1 0.0 2.0 0.00 0.00 0.00 65 1016.7
20260901003757 86 307 0.0 0.0 0.00 0.00 0.00 65 1016.7
20260901003558 86 307 0.0 1.0 0.00 0.00 0.00 65 1016.7
20260901003357 86 307 0.0 2.0 0.00 0.00 0.00 65 1016.7
20260901003258 86 307 0.0 2.0 0.00 0.00 0.00 64 1016.7
20260901003158 86 307 0.0 2.0 0.00 0.00 0.00 64 1016.7
20260901003001 86 296 0.0 2.0 0.00 0.00 0.00 64 1016.6
20260901002857 86 296 0.0 2.0 0.00 0.00 0.00 64 1016.6
20260901002758 86 300 1.0 2.0 0.00 0.00 0.00 64 1016.6
20260901002558 86 329 0.0 2.0 0.00 0.00 0.00 64 1016.6
20260901002458 86 313 0.0 2.0 0.00 0.00 0.00 64 1016.5
20260901002358 86 294 0.0 2.0 0.00 0.00 0.00 64 1016.5
20260901002258 86 294 0.0 2.0 0.00 0.00 0.00 63 1016.5
20260901002159 87 294 0.0 2.0 0.00 0.00 0.00 63 1016.6
20260901002058 87 294 0.0 2.0 0.00 0.00 0.00 63 1016.5
20260901002001 87 294 0.0 2.0 0.00 0.00 0.00 63 1016.6
20260901001857 87 294 0.0 2.0 0.00 0.00 0.00 63 1016.6
20260901001758 87 294 0.0 2.0 0.00 0.00 0.00 62 1016.5
20260901001657 87 294 0.0 2.0 0.00 0.00 0.00 62 1016.5
20260901001558 87 359 0.0 2.0 0.00 0.00 0.00 62 1016.5
20260901001458 87 29 1.0 3.0 0.00 0.00 0.00 62 1016.5
20260901001358 87 342 0.0 3.0 0.00 0.00 0.00 62 1016.5
20260901001259 87 342 0.0 3.0 0.00 0.00 0.00 62 1016.5
20260901001158 87 342 0.0 3.0 0.00 0.00 0.00 62 1016.4
20260901001058 87 336 0.0 3.0 0.00 0.00 0.00 62 1016.4
20260901001001 87 336 0.0 3.0 0.00 0.00 0.00 62 1016.4
20260901000858 87 336 0.0 3.0 0.00 0.00 0.00 62 1016.5
20260901000658 87 324 1.0 3.0 0.00 0.00 0.00 62 1016.4
20260901000558 87 331 0.0 2.0 0.00 0.00 0.00 62 1016.4
20260901000459 87 359 0.0 2.0 0.00 0.00 0.00 62 1016.5
20260901000358 87 347 1.0 3.0 0.00 0.00 0.00 62 1016.4
20260901000259 87 323 0.0 4.0 0.00 0.00 0.00 61 1016.4
20260901000158 87 303 1.0 4.0 0.00 0.00 0.00 61 1016.4
20260901000058 88 319 0.0 4.0 0.00 0.00 0.00 61 1016.3
20260901000004 88 319 1.0 4.0 0.00 0.00 0.00 61 1016.3
20260831235858 88 333 0.0 4.0 0.00 0.00 0.00 61 1016.3
20260831235759 88 340 0.0 4.0 0.00 0.00 0.00 61 1016.3
20260831235659 88 107 0.0 4.0 0.00 0.00 0.00 61 1016.3
20260831235558 88 326 1.0 4.0 0.00 0.00 0.00 61 1016.3
20260831235502 88 65 0.0 4.0 0.00 0.00 0.00 61 1016.3
20260831235359 88 141 4.0 4.0 0.00 0.00 0.00 61 1016.3
20260831235259 88 6 0.0 3.0 0.00 0.00 0.00 61 1016.3
20260831235158 88 319 0.0 3.0 0.00 0.00 0.00 61 1016.2
20260831235059 88 96 1.0 3.0 0.00 0.00 0.00 61 1016.2
20260831235002 88 325 0.0 3.0 0.00 0.00 0.00 61 1016.3
20260831234858 88 310 0.0 3.0 0.00 0.00 0.00 61 1016.2
20260831234759 88 354 2.0 3.0 0.00 0.00 0.00 61 1016.3
20260831234710 88 306 0.0 3.0 0.00 0.00 0.00 61 1016.3
20260831234500 88 360 2.0 3.0 0.00 0.00 0.00 60 1016.2
20260831234300 88 75 0.0 3.0 0.00 0.00 0.00 60 1016.3
20260831234159 88 76 1.0 3.0 0.00 0.00 0.00 60 1016.3
20260831234059 88 79 0.0 4.0 0.00 0.00 0.00 60 1016.3
20260831233859 88 49 1.0 4.0 0.00 0.00 0.00 60 1016.3
20260831233759 88 270 0.0 4.0 0.00 0.00 0.00 60 1016.2
20260831233658 89 354 0.0 4.0 0.00 0.00 0.00 60 1016.2
20260831233559 89 59 0.0 4.0 0.00 0.00 0.00 60 1016.2
20260831233503 89 136 1.0 4.0 0.00 0.00 0.00 60 1016.2
20260831233200 89 66 0.0 4.0 0.00 0.00 0.00 59 1016.2
20260831233059 89 22 3.0 4.0 0.00 0.00 0.00 59 1016.3
20260831233005 89 4 0.0 4.0 0.00 0.00 0.00 59 1016.3
20260831232859 89 350 1.0 4.0 0.00 0.00 0.00 59 1016.3
20260831232759 89 360 3.0 3.0 0.00 0.00 0.00 59 1016.3
20260831232659 89 324 2.0 3.0 0.00 0.00 0.00 59 1016.2
20260831232559 89 26 3.0 3.0 0.00 0.00 0.00 59 1016.2
20260831232500 89 70 0.0 3.0 0.00 0.00 0.00 59 1016.2
20260831232358 89 360 0.0 3.0 0.00 0.00 0.00 59 1016.2
20260831232300 89 345 0.0 3.0 0.00 0.00 0.00 58 1016.2
20260831232200 89 328 0.0 3.0 0.00 0.00 0.00 58 1016.1
20260831232059 89 8 0.0 3.0 0.00 0.00 0.00 58 1016.2
20260831232001 89 4 3.0 3.0 0.00 0.00 0.00 58 1016.2
20260831231858 89 340 2.0 3.0 0.00 0.00 0.00 58 1016.2
20260831231759 89 261 0.0 3.0 0.00 0.00 0.00 58 1016.3
20260831231700 89 335 2.0 4.0 0.00 0.00 0.00 58 1016.2
20260831231500 89 19 1.0 4.0 0.00 0.00 0.00 58 1016.3
20260831231259 89 106 0.0 4.0 0.00 0.00 0.00 58 1016.2
20260831231059 89 342 0.0 4.0 0.00 0.00 0.00 58 1016.3
20260831231004 89 70 0.0 4.0 0.00 0.00 0.00 58 1016.2
20260831230859 89 302 0.0 4.0 0.00 0.00 0.00 57 1016.3
20260831230800 90 60 3.0 4.0 0.00 0.00 0.00 57 1016.3
20260831230659 90 91 3.0 4.0 0.00 0.00 0.00 57 1016.2
20260831230558 90 342 3.0 4.0 0.00 0.00 0.00 57 1016.3
20260831230500 90 18 4.0 5.0 0.00 0.00 0.00 57 1016.2
20260831230159 90 340 0.0 5.0 0.00 0.00 0.00 57 1016.2
20260831230059 90 338 3.0 5.0 0.00 0.00 0.00 57 1016.3
20260831230004 90 338 0.0 5.0 0.00 0.00 0.00 57 1016.3
20260831225858 90 6 4.0 5.0 0.00 0.00 0.00 57 1016.3
20260831225759 90 6 4.0 5.0 0.00 0.00 0.00 56 1016.3
20260831225658 90 52 3.0 5.0 0.00 0.00 0.00 56 1016.3
20260831225558 90 19 3.0 4.0 0.00 0.00 0.00 56 1016.3
20260831225459 90 6 0.0 4.0 0.00 0.00 0.00 56 1016.3
20260831225359 90 342 1.0 4.0 0.00 0.00 0.00 56 1016.3
20260831225258 90 29 2.0 6.0 0.00 0.00 0.00 56 1016.3
20260831225158 90 111 1.0 6.0 0.00 0.00 0.00 56 1016.4
20260831225059 90 17 2.0 6.0 0.00 0.00 0.00 56 1016.4
20260831225004 90 31 1.0 6.0 0.00 0.00 0.00 55 1016.4
20260831224858 90 352 0.0 6.0 0.00 0.00 0.00 56 1016.3
20260831224800 90 347 2.0 6.0 0.00 0.00 0.00 55 1016.4
20260831224659 90 10 3.0 6.0 0.00 0.00 0.00 55 1016.5
20260831224559 90 34 0.0 6.0 0.00 0.00 0.00 55 1016.5
20260831224501 90 360 2.0 6.0 0.00 0.00 0.00 55 1016.4
20260831224203 90 13 2.0 6.0 0.00 0.00 0.00 55 1016.5
20260831224003 90 149 2.0 6.0 0.00 0.00 0.00 54 1016.5
20260831223900 91 41 2.0 6.0 0.00 0.00 0.00 54 1016.5
20260831223758 90 15 0.0 6.0 0.00 0.00 0.00 54 1016.4
20260831223559 91 34 3.0 6.0 0.00 0.00 0.00 54 1016.3
20260831223502 91 311 0.0 6.0 0.00 0.00 0.00 54 1016.3
20260831223359 91 44 2.0 6.0 0.00 0.00 0.00 54 1016.4
20260831223258 91 6 1.0 4.0 0.00 0.00 0.00 54 1016.3
20260831223059 91 46 2.0 4.0 0.00 0.00 0.00 53 1016.4
20260831223004 91 345 0.0 4.0 0.00 0.00 0.00 53 1016.4
20260831222859 91 347 1.0 6.0 0.00 0.00 0.00 53 1016.4
20260831222800 91 3 0.0 6.0 0.00 0.00 0.00 53 1016.4
20260831222659 91 77 0.0 6.0 0.00 0.00 0.00 53 1016.4
20260831222559 91 359 2.0 6.0 0.00 0.00 0.00 53 1016.4
20260831222501 91 357 2.0 7.0 0.00 0.00 0.00 53 1016.4
20260831222358 91 343 1.0 7.0 0.00 0.00 0.00 53 1016.3
20260831222259 91 26 2.0 7.0 0.00 0.00 0.00 53 1016.4
20260831222158 91 36 2.0 7.0 0.00 0.00 0.00 53 1016.5
20260831222059 91 25 3.0 7.0 0.00 0.00 0.00 53 1016.3
20260831222004 91 4 1.0 7.0 0.00 0.00 0.00 53 1016.5
20260831221859 91 39 3.0 7.0 0.00 0.00 0.00 53 1016.5
20260831221700 91 79 2.0 7.0 0.00 0.00 0.00 52 1016.5
20260831221503 91 356 5.0 5.0 0.00 0.00 0.00 52 1016.6
20260831221359 91 13 4.0 5.0 0.00 0.00 0.00 53 1016.6
20260831221259 91 10 4.0 5.0 0.00 0.00 0.00 53 1016.6
20260831221159 91 8 4.0 5.0 0.00 0.00 0.00 53 1016.5
20260831220901 91 43 4.0 5.0 0.00 0.00 0.00 53 1016.5
20260831220758 91 4 0.0 9.0 0.00 0.00 0.00 53 1016.5
20260831220700 91 352 3.0 9.0 0.00 0.00 0.00 53 1016.5
20260831220559 91 22 5.0 9.0 0.00 0.00 0.00 52 1016.5
20260831220500 91 34 3.0 9.0 0.00 0.00 0.00 52 1016.5
20260831220359 91 65 0.0 9.0 0.00 0.00 0.00 52 1016.5
20260831220259 91 86 2.0 9.0 0.00 0.00 0.00 52 1016.4
20260831220158 92 238 2.0 9.0 0.00 0.00 0.00 52 1016.4
20260831220002 92 13 0.0 9.0 0.00 0.00 0.00 52 1016.4
20260831215658 92 82 2.0 7.0 0.00 0.00 0.00 52 1016.5
20260831215500 92 15 3.0 7.0 0.00 0.00 0.00 52 1016.5
20260831215358 92 31 4.0 7.0 0.00 0.00 0.00 52 1016.5
20260831215259 92 360 4.0 7.0 0.00 0.00 0.00 53 1016.5
20260831215158 92 1 2.0 7.0 0.00 0.00 0.00 54 1016.4
20260831215100 92 32 5.0 7.0 0.00 0.00 0.00 53 1016.4
20260831215004 92 345 3.0 7.0 0.00 0.00 0.00 54 1016.5
20260831214859 92 354 4.0 7.0 0.00 0.00 0.00 53 1016.5
20260831214759 92 129 0.0 6.0 0.00 0.00 0.00 53 1016.5
20260831214700 92 57 2.0 6.0 0.00 0.00 0.00 53 1016.5
20260831214559 92 114 1.0 6.0 0.00 0.00 0.00 53 1016.5
20260831214500 92 351 3.0 6.0 0.00 0.00 0.00 53 1016.5
20260831214358 93 336 1.0 6.0 0.00 0.00 0.00 52 1016.5
20260831214258 93 27 4.0 6.0 0.00 0.00 0.00 52 1016.5
20260831214159 93 5 3.0 6.0 0.00 0.00 0.00 52 1016.5
20260831214059 93 69 2.0 6.0 0.00 0.00 0.00 52 1016.5
20260831214003 93 10 4.0 6.0 0.00 0.00 0.00 51 1016.5
20260831213859 93 51 3.0 6.0 0.00 0.00 0.00 51 1016.5
20260831213759 93 32 4.0 6.0 0.00 0.00 0.00 51 1016.5
20260831213658 93 4 4.0 7.0 0.00 0.00 0.00 51 1016.5
20260831213559 93 6 3.0 7.0 0.00 0.00 0.00 52 1016.6
20260831213501 93 98 2.0 7.0 0.00 0.00 0.00 51 1016.5
20260831213400 93 358 3.0 8.0 0.00 0.00 0.00 51 1016.5
20260831213258 93 360 3.0 8.0 0.00 0.00 0.00 52 1016.5
20260831213159 93 10 6.0 8.0 0.00 0.00 0.00 52 1016.6
20260831213004 93 343 3.0 8.0 0.00 0.00 0.00 51 1016.5
20260831212859 93 1 3.0 8.0 0.00 0.00 0.00 51 1016.5
20260831212759 93 352 5.0 8.0 0.00 0.00 0.00 51 1016.5
20260831212700 93 58 3.0 8.0 0.00 0.00 0.00 51 1016.6
20260831212558 93 46 3.0 8.0 0.00 0.00 0.00 50 1016.6
20260831212500 94 41 5.0 8.0 0.00 0.00 0.00 50 1016.6
20260831212358 94 15 5.0 7.0 0.00 0.00 0.00 50 1016.7
20260831212259 94 41 5.0 7.0 0.00 0.00 0.00 50 1016.7
20260831212159 94 349 3.0 7.0 0.00 0.00 0.00 51 1016.6
20260831212004 94 1 3.0 7.0 0.00 0.00 0.00 50 1016.6
20260831211900 94 48 2.0 7.0 0.00 0.00 0.00 49 1016.7
20260831211759 94 36 4.0 7.0 0.00 0.00 0.00 49 1016.7
20260831211559 94 8 6.0 7.0 0.00 0.00 0.00 49 1016.7
20260831211459 94 3 6.0 7.0 0.00 0.00 0.00 49 1016.7
20260831211359 94 349 5.0 7.0 0.00 0.00 0.00 48 1016.7
20260831211300 94 20 3.0 7.0 0.00 0.00 0.00 49 1016.7
20260831211158 94 346 4.0 8.0 0.00 0.00 0.00 48 1016.7
20260831211059 95 331 3.0 8.0 0.00 0.00 0.00 48 1016.8
20260831211002 95 340 5.0 8.0 0.00 0.00 0.00 48 1016.8
20260831210659 94 13 5.0 8.0 0.00 0.00 0.00 48 1016.7
20260831210559 94 85 4.0 8.0 0.00 0.00 0.00 49 1016.7
20260831210500 94 346 5.0 8.0 0.00 0.00 0.00 49 1016.7
20260831210359 94 1 8.0 8.0 0.00 0.00 0.00 50 1016.8
20260831210159 94 4 4.0 7.0 0.00 0.00 0.00 50 1016.8
20260831210100 94 22 2.0 7.0 0.00 0.00 0.00 51 1016.8
20260831210004 94 67 2.0 7.0 0.00 0.00 0.00 51 1016.8
20260831205759 93 10 5.0 7.0 0.00 0.00 0.00 51 1016.8
20260831205700 93 347 1.0 8.0 0.00 0.00 0.00 50 1016.8
20260831205559 93 33 5.0 8.0 0.00 0.00 0.00 51 1016.8
20260831205459 94 102 5.0 8.0 0.00 0.00 0.00 51 1016.8
20260831205359 94 34 1.0 8.0 0.00 0.00 0.00 51 1016.8
20260831205059 94 301 4.0 8.0 0.00 0.00 0.00 51 1016.8
20260831205003 95 8 3.0 8.0 0.00 0.00 0.00 49 1016.8
20260831204859 95 358 5.0 8.0 0.00 0.00 0.00 50 1016.8
20260831204758 95 8 3.0 7.0 0.00 0.00 0.00 50 1016.9
20260831204559 94 27 7.0 7.0 0.00 0.00 0.00 52 1016.8
20260831204501 94 4 6.0 7.0 0.00 0.00 0.00 52 1016.9
20260831204359 94 334 4.0 7.0 0.00 0.00 0.00 52 1016.8
20260831204259 94 340 2.0 7.0 0.00 0.00 0.00 51 1016.8
20260831204159 94 346 6.0 7.0 0.00 0.00 0.00 52 1016.8
20260831204059 93 351 5.0 7.0 0.00 0.00 0.00 52 1016.9
20260831204004 93 19 6.0 7.0 0.00 0.00 0.00 51 1016.9
20260831203759 94 20 3.0 7.0 0.00 0.00 0.00 51 1017.0
20260831203659 94 13 3.0 7.0 0.00 0.00 0.00 51 1017.0
20260831203558 94 4 5.0 7.0 0.00 0.00 0.00 51 1017.0
20260831203500 94 27 5.0 7.0 0.00 0.00 0.00 51 1017.0
20260831203400 94 32 2.0 7.0 0.00 0.00 0.00 51 1017.0
20260831203301 94 22 4.0 7.0 0.00 0.00 0.00 51 1017.0
20260831203159 93 6 5.0 7.0 0.00 0.00 0.00 52 1016.9
20260831203100 93 8 3.0 8.0 0.00 0.00 0.00 51 1017.0
20260831203004 94 20 4.0 8.0 0.00 0.00 0.00 52 1017.0
20260831202858 93 352 3.0 8.0 0.00 0.00 0.00 52 1017.0
20260831202758 93 331 2.0 9.0 0.00 0.00 0.00 51 1016.9
20260831202701 94 357 6.0 9.0 0.00 0.00 0.00 50 1016.9
20260831202504 95 10 3.0 9.0 0.00 0.00 0.00 49 1017.0
20260831202359 95 340 4.0 9.0 0.00 0.00 0.00 49 1017.0
20260831202259 95 20 6.0 9.0 0.00 0.00 0.00 50 1017.1
20260831202159 95 13 6.0 9.0 0.00 0.00 0.00 50 1017.0
20260831202058 95 5 6.0 9.0 0.00 0.00 0.00 50 1017.0
20260831202004 95 350 5.0 9.0 0.00 0.00 0.00 51 1017.0
20260831201900 94 338 3.0 7.0 0.00 0.00 0.00 51 1017.1
20260831201758 93 12 7.0 8.0 0.00 0.00 0.00 52 1017.0
20260831201659 93 341 3.0 8.0 0.00 0.00 0.00 52 1017.0
20260831201559 93 6 2.0 8.0 0.00 0.00 0.00 51 1017.1
20260831201358 94 20 2.0 8.0 0.00 0.00 0.00 50 1017.2
20260831201259 94 25 3.0 8.0 0.00 0.00 0.00 50 1017.1
20260831201200 95 360 5.0 8.0 0.00 0.00 0.00 49 1017.1
20260831201100 95 32 3.0 8.0 0.00 0.00 0.00 49 1017.1
20260831201004 95 20 5.0 8.0 0.00 0.00 0.00 50 1017.1
20260831200859 95 20 7.0 8.0 0.00 0.00 0.00 51 1017.1
20260831200758 95 3 4.0 6.0 0.00 0.00 0.00 52 1017.1
20260831200658 94 20 4.0 6.0 0.00 0.00 0.00 53 1017.2
20260831200500 93 19 4.0 6.0 0.00 0.00 0.00 53 1017.1
20260831200359 93 350 4.0 6.0 0.00 0.00 0.00 53 1017.3
20260831200159 93 315 3.0 6.0 0.00 0.00 0.00 53 1017.3
20260831200058 93 257 0.0 6.0 0.00 0.00 0.00 54 1017.2
20260831195759 92 3 3.0 7.0 0.00 0.00 0.00 53 1017.3
20260831195659 93 48 2.0 7.0 0.00 0.00 0.00 52 1017.3
20260831195558 94 8 3.0 7.0 0.00 0.00 0.00 51 1017.2
20260831195459 94 65 3.0 7.0 0.00 0.00 0.00 51 1017.2
20260831195358 94 319 4.0 7.0 0.00 0.00 0.00 52 1017.2
20260831195258 94 25 5.0 7.0 0.00 0.00 0.00 52 1017.3
20260831195158 94 309 3.0 8.0 0.00 0.00 0.00 54 1017.2
20260831195057 94 354 5.0 8.0 0.00 0.00 0.00 53 1017.2
20260831194859 94 8 4.0 8.0 0.00 0.00 0.00 52 1017.3
20260831194758 93 301 1.0 8.0 0.00 0.00 0.00 53 1017.2
20260831194559 94 342 4.0 8.0 0.00 0.00 0.00 50 1017.4
20260831194459 94 356 5.0 8.0 0.00 0.00 0.00 50 1017.3
20260831194358 95 41 5.0 8.0 0.00 0.00 0.00 50 1017.4
20260831194258 95 24 6.0 8.0 0.00 0.00 0.00 50 1017.4
20260831194157 95 4 6.0 8.0 0.00 0.00 0.00 51 1017.4
20260831194058 94 348 5.0 8.0 0.00 0.00 0.00 52 1017.5
20260831194001 94 302 2.0 8.0 0.00 0.00 0.00 51 1017.5
20260831193858 94 339 4.0 8.0 0.00 0.00 0.00 53 1017.5
20260831193758 94 354 3.0 8.0 0.00 0.00 0.00 53 1017.5
20260831193657 94 322 3.0 9.0 0.00 0.00 0.00 52 1017.5
20260831193558 94 334 3.0 9.0 0.00 0.00 0.00 52 1017.4
20260831193458 94 55 3.0 9.0 0.00 0.00 0.00 52 1017.5
20260831193357 94 17 5.0 9.0 0.00 0.00 0.00 51 1017.5
20260831193157 95 357 6.0 9.0 0.00 0.00 0.00 50 1017.5
20260831193058 95 4 7.0 9.0 0.00 0.00 0.00 50 1017.4
20260831193002 95 250 2.0 9.0 0.00 0.00 0.00 50 1017.5
20260831192758 96 13 7.0 9.0 0.00 0.00 0.00 50 1017.6
20260831192700 95 20 4.0 7.0 0.00 0.00 0.00 51 1017.6
20260831192559 95 353 3.0 7.0 0.00 0.00 0.00 52 1017.5
20260831192357 94 341 4.0 7.0 0.00 0.00 0.00 52 1017.5
20260831192258 94 8 5.0 8.0 0.00 0.00 0.00 51 1017.5
20260831192158 94 319 3.0 8.0 0.00 0.00 0.00 51 1017.5
20260831192057 94 8 5.0 8.0 0.00 0.00 0.00 51 1017.5
20260831192000 94 20 2.0 8.0 0.00 0.00 0.00 51 1017.6
20260831191658 95 27 5.0 8.0 0.00 0.00 0.00 49 1017.5
20260831191558 95 82 4.0 8.0 0.00 0.00 0.00 49 1017.6
20260831191507 95 37 3.0 8.0 0.00 0.00 0.00 50 1017.6
20260831191358 95 4 7.0 8.0 0.00 0.00 0.00 51 1017.6
20260831191257 95 6 8.0 8.0 0.00 0.00 0.00 51 1017.7
20260831191158 95 334 6.0 8.0 0.00 0.00 0.00 51 1017.6
20260831191003 94 8 6.0 8.0 0.00 0.00 0.00 53 1017.6
20260831190857 93 12 4.0 8.0 0.00 0.00 0.00 52 1017.6
20260831190758 93 356 5.0 8.0 0.00 0.00 0.00 52 1017.6
20260831190658 93 1 6.0 10.0 0.00 0.00 0.00 52 1017.6
20260831190558 94 341 3.0 10.0 0.00 0.00 0.00 52 1017.6
20260831190458 94 8 5.0 10.0 0.00 0.00 0.00 51 1017.5
20260831190358 94 336 4.0 10.0 0.00 0.00 0.00 50 1017.7
20260831190257 94 41 2.0 10.0 0.00 0.00 0.00 51 1017.6
20260831190158 94 4 7.0 10.0 0.00 0.00 0.00 53 1017.7
20260831190059 94 1 6.0 10.0 0.00 0.00 0.00 53 1017.6
20260831190002 94 333 5.0 10.0 0.00 0.00 0.00 53 1017.6
20260831185858 94 360 6.0 10.0 0.00 0.00 0.00 52 1017.6
20260831185758 94 358 7.0 8.0 0.00 0.00 0.00 53 1017.5
20260831185557 95 78 3.0 7.0 0.00 0.00 0.00 52 1017.5
20260831185400 95 6 4.0 7.0 0.00 0.00 0.00 51 1017.6
20260831185157 95 332 4.0 8.0 0.00 0.00 0.00 52 1017.7
20260831185057 95 348 5.0 8.0 0.00 0.00 0.00 53 1017.7
20260831184857 94 347 4.0 8.0 0.00 0.00 0.00 53 1017.6
20260831184758 94 6 5.0 8.0 0.00 0.00 0.00 54 1017.6
20260831184658 93 339 6.0 8.0 0.00 0.00 0.00 55 1017.7
20260831184557 93 79 3.0 8.0 0.00 0.00 0.00 55 1017.8
20260831184458 92 352 5.0 8.0 0.00 0.00 0.00 54 1017.7
20260831184257 93 348 6.0 8.0 0.00 0.00 0.00 52 1017.7
20260831184158 93 341 6.0 8.0 0.00 0.00 0.00 52 1017.7
20260831184058 93 324 7.0 8.0 0.00 0.00 0.00 52 1017.9
20260831184001 94 335 6.0 8.0 0.00 0.00 0.00 53 1017.8
20260831183857 93 3 7.0 7.0 0.00 0.00 0.00 53 1017.8
20260831183759 93 13 4.0 7.0 0.00 0.00 0.00 55 1017.8
20260831183657 92 4 7.0 7.0 0.00 0.00 0.00 55 1017.9
20260831183557 92 49 4.0 7.0 0.00 0.00 0.00 57 1017.8
20260831183500 92 4 5.0 7.0 0.00 0.00 0.00 56 1017.9
20260831183358 92 3 4.0 7.0 0.00 0.00 0.00 57 1017.9
20260831183258 92 36 0.0 7.0 0.00 0.00 0.00 56 1017.9
20260831183159 92 338 3.0 7.0 0.00 0.00 0.00 56 1017.8
20260831183057 92 360 2.0 7.0 0.00 0.00 0.00 57 1017.9
20260831182859 91 27 2.0 8.0 0.00 0.00 0.00 57 1018.0
20260831182758 91 359 4.0 8.0 0.00 0.00 0.00 57 1018.0
20260831182459 92 84 1.0 8.0 0.00 0.00 0.00 55 1018.0
20260831182358 92 30 3.0 8.0 0.00 0.00 0.00 54 1018.0
20260831182258 93 75 3.0 8.0 0.00 0.00 0.00 54 1018.1
20260831182157 93 20 1.0 8.0 0.00 0.00 0.00 55 1018.1
20260831182058 93 343 4.0 7.0 0.00 0.00 0.00 54 1018.0
20260831182000 92 335 4.0 8.0 0.00 0.00 0.00 55 1018.1
20260831181858 92 27 3.0 8.0 0.00 0.00 0.00 55 1018.0
20260831181757 92 53 3.0 8.0 0.00 0.00 0.00 55 1018.1
20260831181657 92 22 3.0 8.0 0.00 0.00 0.00 55 1018.0
20260831181600 92 58 3.0 8.0 0.00 0.00 0.00 56 1018.1
20260831181358 91 1 5.0 8.0 0.00 0.00 0.00 57 1018.1
20260831181258 91 11 5.0 8.0 0.00 0.00 0.00 56 1018.1
20260831181158 91 111 5.0 8.0 0.00 0.00 0.00 56 1018.1
20260831181058 91 103 4.0 8.0 0.00 0.00 0.00 56 1018.1
20260831181001 91 360 2.0 8.0 0.00 0.00 0.00 56 1018.1
20260831180859 91 6 6.0 8.0 0.00 0.00 0.00 56 1018.1
20260831180758 91 339 4.0 8.0 0.00 0.00 0.00 57 1018.1
20260831180658 91 338 3.0 7.0 0.00 0.00 0.00 56 1018.1
20260831180558 91 345 4.0 8.0 0.00 0.00 0.00 57 1018.0
20260831180459 92 339 5.0 13.0 0.00 0.00 0.00 56 1018.1
20260831180357 92 355 5.0 13.0 0.00 0.00 0.00 55 1018.1
20260831180158 93 43 3.0 13.0 0.00 0.00 0.00 54 1018.2
20260831175758 92 8 4.0 13.0 0.00 0.00 0.00 54 1018.3
20260831175657 93 334 6.0 13.0 0.00 0.00 0.00 52 1018.3
20260831175600 93 336 6.0 11.0 0.00 0.00 0.00 54 1018.3
20260831175358 93 347 2.0 9.0 0.00 0.00 0.00 55 1018.3
20260831175301 93 346 5.0 9.0 0.00 0.00 0.00 56 1018.3
20260831175158 92 6 5.0 9.0 0.00 0.00 0.00 56 1018.3
20260831175000 92 342 6.0 9.0 0.00 0.00 0.00 56 1018.4
20260831174758 93 360 7.0 8.0 0.00 0.00 0.00 56 1018.5
20260831174657 93 6 2.0 8.0 0.00 0.00 0.00 57 1018.5
20260831174557 93 321 4.0 8.0 0.00 0.00 0.00 56 1018.5
20260831174500 92 4 6.0 8.0 0.00 0.00 0.00 56 1018.6
20260831174358 92 347 5.0 8.0 0.00 0.00 0.00 57 1018.5
20260831174258 91 11 8.0 8.0 0.00 0.00 0.00 59 1018.5
20260831174158 91 346 6.0 8.0 0.00 0.00 0.00 58 1018.4
20260831174057 91 80 2.0 8.0 0.00 0.00 0.00 57 1018.5
20260831174000 91 324 0.0 8.0 0.00 0.00 0.00 55 1018.5
20260831173857 91 75 4.0 8.0 0.00 0.00 0.00 54 1018.5
20260831173758 92 60 0.0 8.0 0.00 0.00 0.00 54 1018.7
20260831173658 92 112 4.0 8.0 0.00 0.00 0.00 55 1018.6
20260831173557 92 115 5.0 8.0 0.00 0.00 0.00 57 1018.6
20260831173459 92 325 4.0 8.0 0.00 0.00 0.00 58 1018.5
20260831173358 91 91 1.0 8.0 0.00 0.00 0.00 58 1018.5
20260831173258 91 10 3.0 8.0 0.00 0.00 0.00 58 1018.6
20260831173156 92 349 3.0 8.0 0.00 0.00 0.00 56 1018.5
20260831173058 92 118 2.0 8.0 0.00 0.00 0.00 56 1018.5
20260831173000 92 323 3.0 8.0 0.00 0.00 0.00 56 1018.7
20260831172858 92 344 6.0 8.0 0.00 0.00 0.00 55 1018.7
20260831172758 93 340 6.0 8.0 0.00 0.00 0.00 55 1018.7
20260831172657 93 324 3.0 8.0 0.00 0.00 0.00 56 1018.7
20260831172557 93 360 7.0 8.0 0.00 0.00 0.00 58 1018.7
20260831172459 92 8 5.0 7.0 0.00 0.00 0.00 58 1018.7
20260831172358 92 346 5.0 7.0 0.00 0.00 0.00 58 1018.7